Observation data for Tarzan on 07/10/2018      Previous  Date  Next       Current Mesonet Observations  Soil Data  Daily Summary Page  Observations in Plain Language
KTA1 100500Z 16004KT 23/20 A3023 RMK A01 T02270202  RH  086%=      5-min Rain = 0
KTA1 100501Z 16004KT 23/20 A3023 RMK A01 T02270202  RH  086%=      5-min Rain = 0
KTA1 100502Z 16005KT 23/20 A3023 RMK A01 T02270202  RH  086%=      5-min Rain = 0
KTA1 100503Z 16005KT 23/20 A3023 RMK A01 T02270202  RH  086%=      5-min Rain = 0
KTA1 100504Z 16004KT 23/20 A3023 RMK A01 T02260202  RH  086%=      5-min Rain = 0
KTA1 100505Z 16004KT 23/20 A3023 RMK A01 T02260202  RH  086%=      5-min Rain = 0
KTA1 100506Z 16004KT 23/20 A3022 RMK A01 T02260201  RH  086%=      5-min Rain = 0
KTA1 100507Z 17005KT 23/20 A3023 RMK A01 T02260201  RH  086%=      5-min Rain = 0
KTA1 100508Z 17005KT 23/20 A3023 RMK A01 T02260201  RH  086%=      5-min Rain = 0
KTA1 100509Z 17005KT 23/20 A3023 RMK A01 T02260201  RH  086%=      5-min Rain = 0
KTA1 100510Z 17005KT 23/20 A3023 RMK A01 T02270202  RH  086%=      5-min Rain = 0
KTA1 100511Z 16004KT 23/20 A3023 RMK A01 T02270201  RH  086%=      5-min Rain = 0
KTA1 100512Z 16004KT 23/20 A3022 RMK A01 T02270201  RH  086%=      5-min Rain = 0
KTA1 100513Z 17005KT 23/20 A3022 RMK A01 T02270201  RH  085%=      5-min Rain = 0
KTA1 100514Z 17005KT 23/20 A3023 RMK A01 T02270201  RH  085%=      5-min Rain = 0
KTA1 100515Z 17005KT 23/20 A3023 RMK A01 T02270200  RH  085%=      5-min Rain = 0
KTA1 100516Z 17006KT 23/20 A3023 RMK A01 T02270200  RH  085%=      5-min Rain = 0
KTA1 100517Z 17005KT 23/20 A3023 RMK A01 T02270200  RH  085%=      5-min Rain = 0
KTA1 100518Z 17005KT 23/20 A3023 RMK A01 T02270199  RH  084%=      5-min Rain = 0
KTA1 100519Z 17005KT 23/20 A3023 RMK A01 T02270199  RH  084%=      5-min Rain = 0
KTA1 100520Z 17005KT 23/20 A3023 RMK A01 T02270199  RH  084%=      5-min Rain = 0
KTA1 100521Z 17005KT 23/20 A3023 RMK A01 T02270199  RH  084%=      5-min Rain = 0
KTA1 100522Z 16005KT 23/20 A3023 RMK A01 T02270199  RH  084%=      5-min Rain = 0
KTA1 100523Z 16005KT 23/20 A3023 RMK A01 T02270200  RH  084%=      5-min Rain = 0
KTA1 100524Z 16005KT 23/20 A3023 RMK A01 T02270200  RH  085%=      5-min Rain = 0
KTA1 100525Z 16005KT 23/20 A3023 RMK A01 T02270200  RH  085%=      5-min Rain = 0
KTA1 100526Z 15005KT 23/20 A3023 RMK A01 T02260200  RH  085%=      5-min Rain = 0
KTA1 100527Z 15005KT 23/20 A3023 RMK A01 T02260199  RH  085%=      5-min Rain = 0
KTA1 100528Z 15005KT 23/20 A3023 RMK A01 T02250199  RH  085%=      5-min Rain = 0
KTA1 100529Z 15005KT 23/20 A3023 RMK A01 T02250200  RH  085%=      5-min Rain = 0
KTA1 100530Z 15005KT 23/20 A3023 RMK A01 T02250199  RH  085%=      5-min Rain = 0
KTA1 100531Z 15005KT 23/20 A3023 RMK A01 T02250199  RH  085%=      5-min Rain = 0
KTA1 100532Z 15004KT 23/20 A3023 RMK A01 T02250199  RH  085%=      5-min Rain = 0
KTA1 100533Z 15004KT 23/20 A3023 RMK A01 T02250199  RH  085%=      5-min Rain = 0
KTA1 100534Z 15004KT 22/20 A3023 RMK A01 T02240199  RH  085%=      5-min Rain = 0
KTA1 100535Z 15004KT 22/20 A3023 RMK A01 T02240199  RH  085%=      5-min Rain = 0
KTA1 100536Z 15004KT 22/20 A3023 RMK A01 T02240199  RH  085%=      5-min Rain = 0
KTA1 100537Z 15003KT 23/20 A3023 RMK A01 T02250199  RH  086%=      5-min Rain = 0
KTA1 100538Z 15004KT 23/20 A3023 RMK A01 T02250199  RH  086%=      5-min Rain = 0
KTA1 100539Z 15004KT 23/20 A3023 RMK A01 T02250199  RH  086%=      5-min Rain = 0
KTA1 100540Z 15004KT 22/20 A3023 RMK A01 T02240199  RH  086%=      5-min Rain = 0
KTA1 100541Z 15004KT 22/20 A3023 RMK A01 T02240199  RH  086%=      5-min Rain = 0
KTA1 100542Z 15004KT 22/20 A3023 RMK A01 T02240198  RH  085%=      5-min Rain = 0
KTA1 100543Z 15003KT 22/20 A3023 RMK A01 T02240198  RH  085%=      5-min Rain = 0
KTA1 100544Z 16003KT 22/20 A3023 RMK A01 T02240199  RH  086%=      5-min Rain = 0
KTA1 100545Z 16004KT 22/20 A3023 RMK A01 T02240199  RH  086%=      5-min Rain = 0
KTA1 100546Z 16004KT 22/20 A3023 RMK A01 T02240199  RH  086%=      5-min Rain = 0
KTA1 100547Z 16004KT 22/20 A3023 RMK A01 T02230199  RH  086%=      5-min Rain = 0
KTA1 100548Z 16004KT 22/20 A3023 RMK A01 T02230199  RH  086%=      5-min Rain = 0
KTA1 100549Z 16004KT 22/20 A3023 RMK A01 T02230199  RH  086%=      5-min Rain = 0
KTA1 100550Z 16004KT 22/20 A3023 RMK A01 T02230199  RH  086%=      5-min Rain = 0
KTA1 100551Z 16005KT 22/20 A3023 RMK A01 T02230199  RH  087%=      5-min Rain = 0
KTA1 100552Z 15004KT 22/20 A3023 RMK A01 T02220199  RH  087%=      5-min Rain = 0
KTA1 100553Z 15004KT 22/20 A3023 RMK A01 T02220199  RH  087%=      5-min Rain = 0
KTA1 100554Z 15005KT 22/20 A3023 RMK A01 T02220199  RH  087%=      5-min Rain = 0
KTA1 100555Z 15004KT 22/20 A3023 RMK A01 T02220199  RH  087%=      5-min Rain = 0
KTA1 100556Z 15005KT 22/20 A3023 RMK A01 T02220199  RH  087%=      5-min Rain = 0
KTA1 100557Z 15004KT 22/20 A3023 RMK A01 T02220199  RH  087%=      5-min Rain = 0
KTA1 100558Z 15004KT 22/20 A3023 RMK A01 T02210199  RH  087%=      5-min Rain = 0
KTA1 100559Z 15004KT 22/20 A3023 RMK A01 T02210199  RH  087%=      5-min Rain = 0
KTA1 100600Z 15004KT 22/20 A3023 RMK A01 T02210199  RH  087%=      5-min Rain = 0
KTA1 100601Z 15004KT 22/20 A3023 RMK A01 T02210200  RH  088%=      5-min Rain = 0
KTA1 100602Z 15004KT 22/20 A3023 RMK A01 T02210200  RH  088%=      5-min Rain = 0
KTA1 100603Z 14004KT 22/20 A3023 RMK A01 T02210200  RH  088%=      5-min Rain = 0
KTA1 100604Z 15004KT 22/20 A3023 RMK A01 T02210201  RH  088%=      5-min Rain = 0
KTA1 100605Z 15003KT 22/20 A3023 RMK A01 T02210201  RH  088%=      5-min Rain = 0
KTA1 100606Z 15003KT 22/20 A3023 RMK A01 T02210201  RH  088%=      5-min Rain = 0
KTA1 100607Z 15003KT 22/20 A3023 RMK A01 T02210201  RH  088%=      5-min Rain = 0
KTA1 100608Z 15004KT 22/20 A3023 RMK A01 T02210201  RH  088%=      5-min Rain = 0
KTA1 100609Z 15004KT 22/20 A3023 RMK A01 T02200201  RH  089%=      5-min Rain = 0
KTA1 100610Z 15004KT 22/20 A3023 RMK A01 T02210201  RH  089%=      5-min Rain = 0
KTA1 100611Z 14003KT 22/20 A3023 RMK A01 T02200201  RH  089%=      5-min Rain = 0
KTA1 100612Z 14004KT 22/20 A3023 RMK A01 T02200201  RH  089%=      5-min Rain = 0
KTA1 100613Z 15004KT 22/20 A3023 RMK A01 T02200201  RH  089%=      5-min Rain = 0
KTA1 100614Z 15004KT 22/20 A3023 RMK A01 T02200201  RH  089%=      5-min Rain = 0
KTA1 100615Z 15004KT 22/20 A3023 RMK A01 T02200201  RH  089%=      5-min Rain = 0
KTA1 100616Z 15004KT 22/20 A3022 RMK A01 T02200201  RH  089%=      5-min Rain = 0
KTA1 100617Z 15004KT 22/20 A3022 RMK A01 T02200200  RH  089%=      5-min Rain = 0
KTA1 100618Z 15004KT 22/20 A3022 RMK A01 T02200200  RH  089%=      5-min Rain = 0
KTA1 100619Z 15004KT 22/20 A3022 RMK A01 T02200200  RH  089%=      5-min Rain = 0
KTA1 100620Z 15004KT 22/20 A3022 RMK A01 T02200200  RH  089%=      5-min Rain = 0
KTA1 100621Z 15004KT 22/20 A3022 RMK A01 T02200201  RH  089%=      5-min Rain = 0
KTA1 100622Z 15004KT 22/20 A3022 RMK A01 T02200201  RH  089%=      5-min Rain = 0
KTA1 100623Z 15004KT 22/20 A3022 RMK A01 T02190201  RH  089%=      5-min Rain = 0
KTA1 100624Z 15003KT 22/20 A3022 RMK A01 T02190201  RH  089%=      5-min Rain = 0
KTA1 100625Z 15004KT 22/20 A3022 RMK A01 T02190201  RH  089%=      5-min Rain = 0
KTA1 100626Z 15004KT 22/20 A3022 RMK A01 T02190201  RH  089%=      5-min Rain = 0
KTA1 100627Z 15004KT 22/20 A3023 RMK A01 T02190201  RH  089%=      5-min Rain = 0
KTA1 100628Z 15004KT 22/20 A3023 RMK A01 T02190201  RH  090%=      5-min Rain = 0
KTA1 100629Z 15004KT 22/20 A3023 RMK A01 T02190201  RH  090%=      5-min Rain = 0
KTA1 100630Z 14004KT 22/20 A3023 RMK A01 T02190202  RH  090%=      5-min Rain = 0
KTA1 100631Z 14004KT 22/20 A3022 RMK A01 T02190202  RH  090%=      5-min Rain = 0
KTA1 100632Z 14004KT 22/20 A3022 RMK A01 T02190201  RH  090%=      5-min Rain = 0
KTA1 100633Z 14004KT 22/20 A3022 RMK A01 T02190201  RH  090%=      5-min Rain = 0
KTA1 100634Z 15004KT 22/20 A3022 RMK A01 T02190202  RH  090%=      5-min Rain = 0
KTA1 100635Z 15003KT 22/20 A3022 RMK A01 T02190202  RH  090%=      5-min Rain = 0
KTA1 100636Z 15004KT 22/20 A3023 RMK A01 T02180202  RH  090%=      5-min Rain = 0
KTA1 100637Z 15003KT 22/20 A3023 RMK A01 T02190202  RH  090%=      5-min Rain = 0
KTA1 100638Z 15003KT 22/20 A3023 RMK A01 T02180201  RH  090%=      5-min Rain = 0
KTA1 100639Z 15003KT 22/20 A3023 RMK A01 T02180201  RH  090%=      5-min Rain = 0
KTA1 100640Z 14003KT 22/20 A3023 RMK A01 T02180202  RH  090%=      5-min Rain = 0
KTA1 100641Z 14003KT 22/20 A3023 RMK A01 T02170201  RH  090%=      5-min Rain = 0
KTA1 100642Z 14002KT 22/20 A3023 RMK A01 T02180202  RH  091%=      5-min Rain = 0
KTA1 100643Z 14002KT 22/20 A3023 RMK A01 T02170202  RH  091%=      5-min Rain = 0
KTA1 100644Z 14002KT 22/20 A3023 RMK A01 T02170202  RH  091%=      5-min Rain = 0
KTA1 100645Z 13002KT 22/20 A3023 RMK A01 T02180202  RH  091%=      5-min Rain = 0
KTA1 100646Z 13002KT 22/20 A3023 RMK A01 T02180202  RH  091%=      5-min Rain = 0
KTA1 100647Z 13002KT 22/20 A3023 RMK A01 T02180202  RH  091%=      5-min Rain = 0
KTA1 100648Z 14002KT 22/20 A3023 RMK A01 T02170202  RH  091%=      5-min Rain = 0
KTA1 100649Z 14001KT 22/20 A3023 RMK A01 T02180202  RH  091%=      5-min Rain = 0
KTA1 100650Z 14002KT 22/20 A3023 RMK A01 T02180202  RH  091%=      5-min Rain = 0
KTA1 100651Z 13002KT 22/20 A3023 RMK A01 T02170202  RH  091%=      5-min Rain = 0
KTA1 100652Z 14002KT 22/20 A3023 RMK A01 T02170202  RH  091%=      5-min Rain = 0
KTA1 100653Z 15002KT 22/20 A3023 RMK A01 T02170202  RH  091%=      5-min Rain = 0
KTA1 100654Z 14002KT 22/20 A3023 RMK A01 T02170202  RH  091%=      5-min Rain = 0
KTA1 100655Z 15003KT 22/20 A3023 RMK A01 T02170202  RH  091%=      5-min Rain = 0
KTA1 100656Z 15003KT 22/20 A3023 RMK A01 T02170202  RH  091%=      5-min Rain = 0
KTA1 100657Z 15003KT 22/20 A3023 RMK A01 T02170202  RH  091%=      5-min Rain = 0
KTA1 100658Z 15002KT 22/20 A3023 RMK A01 T02160202  RH  091%=      5-min Rain = 0
KTA1 100659Z 15002KT 22/20 A3023 RMK A01 T02160202  RH  091%=      5-min Rain = 0
KTA1 100700Z 15002KT 22/20 A3023 RMK A01 T02160202  RH  091%=      5-min Rain = 0
KTA1 100701Z 15003KT 22/20 A3023 RMK A01 T02160202  RH  092%=      5-min Rain = 0
KTA1 100702Z 15003KT 22/20 A3023 RMK A01 T02160201  RH  092%=      5-min Rain = 0
KTA1 100703Z 15003KT 22/20 A3023 RMK A01 T02160202  RH  092%=      5-min Rain = 0
KTA1 100704Z 15003KT 22/20 A3023 RMK A01 T02160202  RH  092%=      5-min Rain = 0
KTA1 100705Z 14002KT 22/20 A3023 RMK A01 T02150202  RH  092%=      5-min Rain = 0
KTA1 100706Z 14002KT 22/20 A3023 RMK A01 T02150202  RH  092%=      5-min Rain = 0
KTA1 100707Z 14002KT 22/20 A3023 RMK A01 T02150202  RH  092%=      5-min Rain = 0
KTA1 100708Z 15002KT 22/20 A3023 RMK A01 T02150202  RH  092%=      5-min Rain = 0
KTA1 100709Z 15002KT 22/20 A3023 RMK A01 T02150202  RH  092%=      5-min Rain = 0
KTA1 100710Z 14002KT 22/20 A3023 RMK A01 T02150202  RH  092%=      5-min Rain = 0
KTA1 100711Z 14002KT 22/20 A3023 RMK A01 T02150202  RH  092%=      5-min Rain = 0
KTA1 100712Z 14002KT 22/20 A3023 RMK A01 T02150202  RH  093%=      5-min Rain = 0
KTA1 100713Z 14002KT 22/20 A3023 RMK A01 T02150202  RH  093%=      5-min Rain = 0
KTA1 100714Z 14002KT 22/20 A3023 RMK A01 T02150202  RH  093%=      5-min Rain = 0
KTA1 100715Z 15002KT 22/20 A3023 RMK A01 T02150202  RH  093%=      5-min Rain = 0
KTA1 100716Z 14002KT 22/20 A3023 RMK A01 T02150202  RH  093%=      5-min Rain = 0
KTA1 100717Z 15002KT 22/20 A3023 RMK A01 T02150202  RH  092%=      5-min Rain = 0
KTA1 100718Z 15002KT 22/20 A3023 RMK A01 T02150202  RH  092%=      5-min Rain = 0
KTA1 100719Z 15002KT 22/20 A3023 RMK A01 T02150202  RH  093%=      5-min Rain = 0
KTA1 100720Z 16002KT 22/20 A3023 RMK A01 T02150202  RH  093%=      5-min Rain = 0
KTA1 100721Z 16002KT 22/20 A3023 RMK A01 T02150202  RH  092%=      5-min Rain = 0
KTA1 100722Z 16002KT 22/20 A3023 RMK A01 T02150202  RH  092%=      5-min Rain = 0
KTA1 100723Z 16001KT 22/20 A3023 RMK A01 T02150202  RH  093%=      5-min Rain = 0
KTA1 100724Z 17001KT 22/20 A3023 RMK A01 T02150203  RH  093%=      5-min Rain = 0
KTA1 100725Z 17001KT 22/20 A3023 RMK A01 T02150202  RH  093%=      5-min Rain = 0
KTA1 100726Z 00000KT 22/20 A3023 RMK A01 T02150202  RH  093%=      5-min Rain = 0
KTA1 100727Z 00000KT 22/20 A3023 RMK A01 T02150202  RH  093%=      5-min Rain = 0
KTA1 100728Z 00000KT 22/20 A3023 RMK A01 T02150203  RH  093%=      5-min Rain = 0
KTA1 100729Z 00000KT 22/20 A3023 RMK A01 T02150203  RH  093%=      5-min Rain = 0
KTA1 100730Z 00000KT 22/20 A3023 RMK A01 T02150203  RH  093%=      5-min Rain = 0
KTA1 100731Z 25001KT 22/20 A3023 RMK A01 T02150203  RH  093%=      5-min Rain = 0
KTA1 100732Z 26001KT 22/20 A3023 RMK A01 T02150203  RH  093%=      5-min Rain = 0
KTA1 100733Z 26001KT 22/20 A3023 RMK A01 T02150203  RH  093%=      5-min Rain = 0
KTA1 100734Z 26001KT 22/20 A3023 RMK A01 T02150203  RH  093%=      5-min Rain = 0
KTA1 100735Z 26001KT 22/20 A3023 RMK A01 T02150203  RH  093%=      5-min Rain = 0
KTA1 100736Z 28001KT 21/20 A3023 RMK A01 T02140203  RH  093%=      5-min Rain = 0
KTA1 100737Z 29001KT 21/20 A3023 RMK A01 T02140203  RH  093%=      5-min Rain = 0
KTA1 100738Z 31002KT 21/20 A3023 RMK A01 T02140203  RH  093%=      5-min Rain = 0
KTA1 100739Z 31001KT 21/20 A3023 RMK A01 T02140203  RH  093%=      5-min Rain = 0
KTA1 100740Z 31001KT 21/20 A3023 RMK A01 T02140203  RH  093%=      5-min Rain = 0
KTA1 100741Z 32001KT 21/20 A3023 RMK A01 T02140203  RH  093%=      5-min Rain = 0
KTA1 100742Z 33001KT 21/20 A3023 RMK A01 T02130203  RH  093%=      5-min Rain = 0
KTA1 100743Z 33001KT 21/20 A3023 RMK A01 T02140203  RH  093%=      5-min Rain = 0
KTA1 100744Z 33001KT 21/20 A3023 RMK A01 T02130203  RH  094%=      5-min Rain = 0
KTA1 100745Z 33001KT 21/20 A3023 RMK A01 T02130203  RH  094%=      5-min Rain = 0
KTA1 100746Z 33001KT 21/20 A3023 RMK A01 T02130203  RH  094%=      5-min Rain = 0
KTA1 100747Z 33001KT 21/20 A3023 RMK A01 T02130203  RH  094%=      5-min Rain = 0
KTA1 100748Z 33000KT 21/20 A3023 RMK A01 T02130203  RH  094%=      5-min Rain = 0
KTA1 100749Z 00000KT 21/20 A3023 RMK A01 T02130203  RH  094%=      5-min Rain = 0
KTA1 100750Z 00000KT 21/20 A3023 RMK A01 T02130203  RH  094%=      5-min Rain = 0
KTA1 100751Z 00000KT 21/20 A3023 RMK A01 T02140204  RH  094%=      5-min Rain = 0
KTA1 100752Z 00000KT 21/20 A3023 RMK A01 T02130203  RH  094%=      5-min Rain = 0
KTA1 100753Z 00000KT 21/20 A3023 RMK A01 T02140204  RH  094%=      5-min Rain = 0
KTA1 100754Z 00000KT 21/20 A3023 RMK A01 T02140204  RH  094%=      5-min Rain = 0
KTA1 100755Z 00000KT 21/21 A3023 RMK A01 T02140205  RH  094%=      5-min Rain = 0
KTA1 100756Z 00000KT 21/21 A3023 RMK A01 T02140205  RH  094%=      5-min Rain = 0
KTA1 100757Z 00000KT 22/21 A3023 RMK A01 T02150205  RH  094%=      5-min Rain = 0
KTA1 100758Z 00000KT 22/21 A3023 RMK A01 T02150205  RH  094%=      5-min Rain = 0
KTA1 100759Z 00000KT 22/21 A3023 RMK A01 T02150205  RH  094%=      5-min Rain = 0
KTA1 100800Z 00000KT 22/21 A3023 RMK A01 T02150205  RH  094%=      5-min Rain = 0
KTA1 100801Z 00000KT 22/21 A3023 RMK A01 T02150206  RH  094%=      5-min Rain = 0
KTA1 100802Z 00000KT 22/21 A3023 RMK A01 T02150206  RH  094%=      5-min Rain = 0
KTA1 100803Z 00000KT 22/21 A3023 RMK A01 T02160206  RH  094%=      5-min Rain = 0
KTA1 100804Z 00000KT 22/21 A3023 RMK A01 T02160206  RH  094%=      5-min Rain = 0
KTA1 100805Z 00000KT 22/21 A3023 RMK A01 T02160206  RH  094%=      5-min Rain = 0
KTA1 100806Z 00000KT 22/21 A3023 RMK A01 T02160205  RH  094%=      5-min Rain = 0
KTA1 100807Z 00000KT 22/21 A3023 RMK A01 T02160205  RH  093%=      5-min Rain = 0
KTA1 100808Z 00000KT 22/21 A3023 RMK A01 T02160205  RH  093%=      5-min Rain = 0
KTA1 100809Z 00000KT 22/21 A3023 RMK A01 T02160205  RH  093%=      5-min Rain = 0
KTA1 100810Z 02000KT 22/20 A3023 RMK A01 T02160204  RH  093%=      5-min Rain = 0
KTA1 100811Z 03001KT 22/20 A3023 RMK A01 T02160204  RH  093%=      5-min Rain = 0
KTA1 100812Z 06002KT 22/21 A3023 RMK A01 T02170205  RH  093%=      5-min Rain = 0
KTA1 100813Z 06002KT 22/21 A3023 RMK A01 T02170205  RH  093%=      5-min Rain = 0
KTA1 100814Z 06002KT 22/21 A3023 RMK A01 T02170205  RH  093%=      5-min Rain = 0
KTA1 100815Z 06002KT 22/21 A3023 RMK A01 T02170205  RH  093%=      5-min Rain = 0
KTA1 100816Z 07002KT 22/21 A3023 RMK A01 T02170205  RH  093%=      5-min Rain = 0
KTA1 100817Z 07002KT 22/21 A3023 RMK A01 T02170205  RH  093%=      5-min Rain = 0
KTA1 100818Z 08002KT 22/21 A3023 RMK A01 T02170205  RH  093%=      5-min Rain = 0
KTA1 100819Z 08002KT 22/21 A3023 RMK A01 T02170205  RH  093%=      5-min Rain = 0
KTA1 100820Z 08002KT 22/20 A3023 RMK A01 T02170204  RH  093%=      5-min Rain = 0
KTA1 100821Z 08002KT 22/20 A3023 RMK A01 T02160204  RH  093%=      5-min Rain = 0
KTA1 100822Z 10002KT 22/21 A3023 RMK A01 T02170205  RH  093%=      5-min Rain = 0
KTA1 100823Z 10002KT 22/21 A3023 RMK A01 T02170205  RH  093%=      5-min Rain = 0
KTA1 100824Z 10002KT 22/21 A3023 RMK A01 T02170205  RH  093%=      5-min Rain = 0
KTA1 100825Z 10002KT 22/21 A3023 RMK A01 T02170205  RH  093%=      5-min Rain = 0
KTA1 100826Z 10002KT 22/21 A3023 RMK A01 T02170205  RH  093%=      5-min Rain = 0
KTA1 100827Z 10002KT 22/21 A3023 RMK A01 T02170205  RH  093%=      5-min Rain = 0
KTA1 100828Z 10002KT 22/21 A3023 RMK A01 T02170205  RH  093%=      5-min Rain = 0
KTA1 100829Z 10003KT 22/20 A3023 RMK A01 T02170204  RH  093%=      5-min Rain = 0
KTA1 100830Z 10003KT 22/20 A3023 RMK A01 T02170204  RH  093%=      5-min Rain = 0
KTA1 100831Z 10003KT 22/21 A3022 RMK A01 T02170205  RH  093%=      5-min Rain = 0
KTA1 100832Z 09003KT 22/20 A3022 RMK A01 T02170204  RH  093%=      5-min Rain = 0
KTA1 100833Z 09003KT 22/20 A3022 RMK A01 T02170204  RH  093%=      5-min Rain = 0
KTA1 100834Z 09003KT 22/20 A3022 RMK A01 T02170204  RH  093%=      5-min Rain = 0
KTA1 100835Z 09003KT 22/20 A3022 RMK A01 T02170204  RH  093%=      5-min Rain = 0
KTA1 100836Z 09003KT 22/20 A3023 RMK A01 T02170204  RH  093%=      5-min Rain = 0
KTA1 100837Z 09003KT 22/20 A3023 RMK A01 T02170204  RH  092%=      5-min Rain = 0
KTA1 100838Z 09003KT 22/20 A3023 RMK A01 T02170204  RH  092%=      5-min Rain = 0
KTA1 100839Z 09003KT 22/20 A3023 RMK A01 T02170204  RH  092%=      5-min Rain = 0
KTA1 100840Z 10003KT 22/20 A3023 RMK A01 T02170203  RH  092%=      5-min Rain = 0
KTA1 100841Z 09003KT 22/20 A3023 RMK A01 T02170204  RH  092%=      5-min Rain = 0
KTA1 100842Z 09004KT 22/20 A3023 RMK A01 T02160204  RH  092%=      5-min Rain = 0
KTA1 100843Z 09004KT 22/20 A3023 RMK A01 T02170203  RH  092%=      5-min Rain = 0
KTA1 100844Z 09004KT 22/20 A3023 RMK A01 T02170203  RH  092%=      5-min Rain = 0
KTA1 100845Z 09004KT 22/20 A3023 RMK A01 T02160203  RH  092%=      5-min Rain = 0
KTA1 100846Z 09004KT 22/20 A3023 RMK A01 T02170204  RH  092%=      5-min Rain = 0
KTA1 100847Z 09004KT 22/20 A3023 RMK A01 T02170203  RH  092%=      5-min Rain = 0
KTA1 100848Z 09003KT 22/20 A3023 RMK A01 T02170203  RH  092%=      5-min Rain = 0
KTA1 100849Z 09003KT 22/20 A3023 RMK A01 T02170203  RH  092%=      5-min Rain = 0
KTA1 100850Z 09003KT 22/20 A3023 RMK A01 T02170203  RH  092%=      5-min Rain = 0
KTA1 100851Z 09004KT 22/20 A3023 RMK A01 T02170203  RH  092%=      5-min Rain = 0
KTA1 100852Z 09003KT 22/20 A3023 RMK A01 T02170203  RH  092%=      5-min Rain = 0
KTA1 100853Z 10003KT 22/20 A3023 RMK A01 T02170203  RH  092%=      5-min Rain = 0
KTA1 100854Z 09003KT 22/20 A3023 RMK A01 T02170203  RH  092%=      5-min Rain = 0
KTA1 100855Z 10003KT 22/20 A3023 RMK A01 T02170203  RH  092%=      5-min Rain = 0
KTA1 100856Z 10003KT 22/20 A3023 RMK A01 T02170203  RH  092%=      5-min Rain = 0
KTA1 100857Z 10003KT 22/20 A3023 RMK A01 T02170203  RH  092%=      5-min Rain = 0
KTA1 100858Z 10004KT 22/20 A3023 RMK A01 T02160203  RH  092%=      5-min Rain = 0
KTA1 100859Z 10004KT 22/20 A3023 RMK A01 T02160203  RH  092%=      5-min Rain = 0
KTA1 100900Z 10003KT 22/20 A3022 RMK A01 T02160203  RH  092%=      5-min Rain = 0
KTA1 100901Z 10004KT 22/20 A3022 RMK A01 T02160203  RH  093%=      5-min Rain = 0
KTA1 100902Z 10004KT 22/20 A3022 RMK A01 T02150203  RH  093%=      5-min Rain = 0
KTA1 100903Z 10004KT 22/20 A3022 RMK A01 T02150203  RH  093%=      5-min Rain = 0
KTA1 100904Z 10004KT 22/20 A3022 RMK A01 T02150203  RH  093%=      5-min Rain = 0
KTA1 100905Z 11004KT 22/20 A3022 RMK A01 T02150203  RH  093%=      5-min Rain = 0
KTA1 100906Z 11004KT 21/20 A3023 RMK A01 T02140204  RH  093%=      5-min Rain = 0
KTA1 100907Z 11004KT 22/20 A3022 RMK A01 T02150204  RH  094%=      5-min Rain = 0
KTA1 100908Z 11004KT 21/20 A3023 RMK A01 T02140203  RH  094%=      5-min Rain = 0
KTA1 100909Z 10004KT 21/20 A3022 RMK A01 T02140203  RH  094%=      5-min Rain = 0
KTA1 100910Z 10005KT 21/20 A3022 RMK A01 T02140203  RH  094%=      5-min Rain = 0
KTA1 100911Z 10004KT 21/20 A3022 RMK A01 T02130203  RH  094%=      5-min Rain = 0
KTA1 100912Z 10004KT 21/20 A3022 RMK A01 T02130202  RH  094%=      5-min Rain = 0
KTA1 100913Z 10004KT 21/20 A3022 RMK A01 T02130202  RH  094%=      5-min Rain = 0
KTA1 100914Z 10004KT 21/20 A3022 RMK A01 T02130202  RH  094%=      5-min Rain = 0
KTA1 100915Z 11004KT 21/20 A3022 RMK A01 T02130203  RH  094%=      5-min Rain = 0
KTA1 100916Z 11004KT 21/20 A3022 RMK A01 T02130202  RH  094%=      5-min Rain = 0
KTA1 100917Z 11004KT 21/20 A3022 RMK A01 T02120202  RH  094%=      5-min Rain = 0
KTA1 100918Z 11003KT 21/20 A3022 RMK A01 T02120202  RH  094%=      5-min Rain = 0
KTA1 100919Z 11004KT 21/20 A3022 RMK A01 T02130202  RH  094%=      5-min Rain = 0
KTA1 100920Z 12004KT 21/20 A3022 RMK A01 T02130202  RH  094%=      5-min Rain = 0
KTA1 100921Z 11004KT 21/20 A3022 RMK A01 T02130203  RH  094%=      5-min Rain = 0
KTA1 100922Z 11005KT 21/20 A3022 RMK A01 T02120202  RH  094%=      5-min Rain = 0
KTA1 100923Z 12004KT 21/20 A3022 RMK A01 T02120202  RH  094%=      5-min Rain = 0
KTA1 100924Z 12004KT 21/20 A3022 RMK A01 T02120202  RH  094%=      5-min Rain = 0
KTA1 100925Z 12004KT 21/20 A3022 RMK A01 T02120201  RH  094%=      5-min Rain = 0
KTA1 100926Z 12005KT 21/20 A3022 RMK A01 T02120201  RH  094%=      5-min Rain = 0
KTA1 100927Z 12005KT 21/20 A3022 RMK A01 T02120201  RH  094%=      5-min Rain = 0
KTA1 100928Z 11004KT 21/20 A3022 RMK A01 T02120201  RH  093%=      5-min Rain = 0
KTA1 100929Z 12004KT 21/20 A3022 RMK A01 T02120201  RH  093%=      5-min Rain = 0
KTA1 100930Z 12004KT 21/20 A3022 RMK A01 T02120201  RH  093%=      5-min Rain = 0
KTA1 100931Z 12004KT 21/20 A3022 RMK A01 T02120201  RH  093%=      5-min Rain = 0
KTA1 100932Z 12004KT 21/20 A3022 RMK A01 T02120201  RH  093%=      5-min Rain = 0
KTA1 100933Z 12004KT 21/20 A3022 RMK A01 T02120200  RH  093%=      5-min Rain = 0
KTA1 100934Z 12004KT 21/20 A3022 RMK A01 T02120201  RH  093%=      5-min Rain = 0
KTA1 100935Z 12003KT 21/20 A3022 RMK A01 T02120201  RH  093%=      5-min Rain = 0
KTA1 100936Z 12003KT 21/20 A3022 RMK A01 T02120201  RH  093%=      5-min Rain = 0
KTA1 100937Z 12003KT 21/20 A3022 RMK A01 T02120201  RH  093%=      5-min Rain = 0
KTA1 100938Z 12003KT 21/20 A3022 RMK A01 T02120201  RH  093%=      5-min Rain = 0
KTA1 100939Z 12003KT 21/20 A3022 RMK A01 T02120200  RH  093%=      5-min Rain = 0
KTA1 100940Z 13003KT 21/20 A3022 RMK A01 T02120200  RH  093%=      5-min Rain = 0
KTA1 100941Z 12003KT 21/20 A3022 RMK A01 T02120200  RH  093%=      5-min Rain = 0
KTA1 100942Z 12003KT 21/20 A3022 RMK A01 T02120200  RH  093%=      5-min Rain = 0
KTA1 100943Z 12003KT 21/20 A3022 RMK A01 T02120200  RH  093%=      5-min Rain = 0
KTA1 100944Z 12003KT 21/20 A3022 RMK A01 T02120200  RH  093%=      5-min Rain = 0
KTA1 100945Z 12002KT 21/20 A3022 RMK A01 T02120200  RH  093%=      5-min Rain = 0
KTA1 100946Z 12002KT 21/20 A3022 RMK A01 T02120199  RH  093%=      5-min Rain = 0
KTA1 100947Z 11002KT 21/20 A3022 RMK A01 T02120200  RH  093%=      5-min Rain = 0
KTA1 100948Z 11002KT 21/20 A3022 RMK A01 T02120199  RH  092%=      5-min Rain = 0
KTA1 100949Z 11001KT 21/20 A3022 RMK A01 T02120200  RH  093%=      5-min Rain = 0
KTA1 100950Z 10002KT 21/20 A3022 RMK A01 T02120200  RH  093%=      5-min Rain = 0
KTA1 100951Z 09001KT 21/20 A3022 RMK A01 T02120199  RH  092%=      5-min Rain = 0
KTA1 100952Z 10001KT 21/20 A3022 RMK A01 T02120200  RH  092%=      5-min Rain = 0
KTA1 100953Z 09001KT 21/20 A3022 RMK A01 T02120199  RH  092%=      5-min Rain = 0
KTA1 100954Z 08001KT 21/20 A3022 RMK A01 T02120199  RH  092%=      5-min Rain = 0
KTA1 100955Z 08001KT 21/20 A3022 RMK A01 T02120198  RH  092%=      5-min Rain = 0
KTA1 100956Z 08001KT 21/20 A3022 RMK A01 T02120198  RH  092%=      5-min Rain = 0
KTA1 100957Z 08001KT 21/20 A3022 RMK A01 T02120198  RH  092%=      5-min Rain = 0
KTA1 100958Z 08001KT 21/20 A3022 RMK A01 T02120198  RH  092%=      5-min Rain = 0
KTA1 100959Z 06001KT 21/20 A3022 RMK A01 T02120199  RH  092%=      5-min Rain = 0
KTA1 101000Z 05001KT 21/20 A3022 RMK A01 T02120199  RH  092%=      5-min Rain = 0
KTA1 101001Z 05001KT 21/20 A3022 RMK A01 T02120199  RH  092%=      5-min Rain = 0
KTA1 101002Z 05001KT 21/20 A3022 RMK A01 T02120199  RH  092%=      5-min Rain = 0
KTA1 101003Z 04001KT 21/20 A3022 RMK A01 T02120198  RH  092%=      5-min Rain = 0
KTA1 101004Z 04001KT 21/20 A3022 RMK A01 T02120198  RH  092%=      5-min Rain = 0
KTA1 101005Z 03001KT 21/20 A3022 RMK A01 T02130199  RH  092%=      5-min Rain = 0
KTA1 101006Z 02001KT 21/20 A3022 RMK A01 T02130199  RH  092%=      5-min Rain = 0
KTA1 101007Z 02001KT 21/20 A3022 RMK A01 T02130200  RH  092%=      5-min Rain = 0
KTA1 101008Z 02001KT 21/20 A3022 RMK A01 T02130200  RH  092%=      5-min Rain = 0
KTA1 101009Z 02001KT 21/20 A3022 RMK A01 T02130199  RH  092%=      5-min Rain = 0
KTA1 101010Z 01001KT 21/20 A3022 RMK A01 T02130199  RH  092%=      5-min Rain = 0
KTA1 101011Z 00002KT 21/20 A3022 RMK A01 T02130199  RH  092%=      5-min Rain = 0
KTA1 101012Z 00002KT 21/20 A3022 RMK A01 T02130200  RH  092%=      5-min Rain = 0
KTA1 101013Z 00002KT 21/20 A3022 RMK A01 T02130200  RH  092%=      5-min Rain = 0
KTA1 101014Z 00002KT 21/20 A3022 RMK A01 T02130200  RH  092%=      5-min Rain = 0
KTA1 101015Z 00002KT 21/20 A3022 RMK A01 T02130200  RH  092%=      5-min Rain = 0
KTA1 101016Z 00002KT 21/20 A3022 RMK A01 T02120200  RH  093%=      5-min Rain = 0
KTA1 101017Z 01002KT 21/20 A3022 RMK A01 T02120200  RH  093%=      5-min Rain = 0
KTA1 101018Z 01002KT 21/20 A3022 RMK A01 T02120200  RH  092%=      5-min Rain = 0
KTA1 101019Z 01002KT 21/20 A3022 RMK A01 T02120199  RH  092%=      5-min Rain = 0
KTA1 101020Z 01002KT 21/20 A3022 RMK A01 T02130200  RH  092%=      5-min Rain = 0
KTA1 101021Z 01003KT 21/20 A3022 RMK A01 T02130200  RH  092%=      5-min Rain = 0
KTA1 101022Z 02003KT 21/20 A3022 RMK A01 T02130199  RH  092%=      5-min Rain = 0
KTA1 101023Z 02003KT 21/20 A3022 RMK A01 T02130198  RH  091%=      5-min Rain = 0
KTA1 101024Z 03002KT 21/20 A3022 RMK A01 T02130199  RH  091%=      5-min Rain = 0
KTA1 101025Z 03003KT 21/20 A3023 RMK A01 T02130199  RH  092%=      5-min Rain = 0
KTA1 101026Z 03003KT 21/20 A3023 RMK A01 T02130200  RH  092%=      5-min Rain = 0
KTA1 101027Z 03003KT 21/20 A3023 RMK A01 T02130199  RH  092%=      5-min Rain = 0
KTA1 101028Z 03003KT 21/20 A3023 RMK A01 T02130198  RH  091%=      5-min Rain = 0
KTA1 101029Z 03003KT 21/20 A3023 RMK A01 T02130198  RH  091%=      5-min Rain = 0
KTA1 101030Z 03003KT 21/20 A3023 RMK A01 T02130199  RH  091%=      5-min Rain = 0
KTA1 101031Z 03003KT 21/20 A3023 RMK A01 T02130199  RH  092%=      5-min Rain = 0
KTA1 101032Z 02003KT 21/20 A3023 RMK A01 T02140199  RH  092%=      5-min Rain = 0
KTA1 101033Z 02002KT 21/20 A3023 RMK A01 T02140199  RH  091%=      5-min Rain = 0
KTA1 101034Z 02002KT 21/20 A3023 RMK A01 T02140199  RH  092%=      5-min Rain = 0
KTA1 101035Z 03003KT 21/20 A3023 RMK A01 T02140200  RH  092%=      5-min Rain = 0
KTA1 101036Z 03003KT 21/20 A3023 RMK A01 T02140200  RH  092%=      5-min Rain = 0
KTA1 101037Z 03003KT 21/20 A3023 RMK A01 T02140200  RH  092%=      5-min Rain = 0
KTA1 101038Z 02003KT 21/20 A3023 RMK A01 T02140201  RH  092%=      5-min Rain = 0
KTA1 101039Z 04003KT 21/20 A3023 RMK A01 T02140201  RH  092%=      5-min Rain = 0
KTA1 101040Z 05003KT 21/20 A3023 RMK A01 T02140201  RH  092%=      5-min Rain = 0
KTA1 101041Z 05003KT 21/20 A3023 RMK A01 T02140200  RH  092%=      5-min Rain = 0
KTA1 101042Z 05003KT 21/20 A3023 RMK A01 T02130200  RH  092%=      5-min Rain = 0
KTA1 101043Z 06003KT 21/20 A3023 RMK A01 T02130201  RH  092%=      5-min Rain = 0
KTA1 101044Z 07003KT 21/20 A3023 RMK A01 T02130201  RH  093%=      5-min Rain = 0
KTA1 101045Z 06003KT 21/20 A3023 RMK A01 T02130201  RH  092%=      5-min Rain = 0
KTA1 101046Z 06003KT 21/20 A3023 RMK A01 T02130200  RH  092%=      5-min Rain = 0
KTA1 101047Z 06003KT 21/20 A3023 RMK A01 T02130201  RH  092%=      5-min Rain = 0
KTA1 101048Z 08003KT 21/20 A3023 RMK A01 T02130201  RH  092%=      5-min Rain = 0
KTA1 101049Z 08003KT 21/20 A3023 RMK A01 T02130201  RH  093%=      5-min Rain = 0
KTA1 101050Z 08003KT 21/20 A3023 RMK A01 T02130201  RH  093%=      5-min Rain = 0
KTA1 101051Z 08004KT 21/20 A3023 RMK A01 T02130201  RH  092%=      5-min Rain = 0
KTA1 101052Z 08003KT 21/20 A3023 RMK A01 T02140201  RH  092%=      5-min Rain = 0
KTA1 101053Z 09004KT 21/20 A3023 RMK A01 T02140200  RH  092%=      5-min Rain = 0
KTA1 101054Z 09004KT 21/20 A3023 RMK A01 T02140200  RH  092%=      5-min Rain = 0
KTA1 101055Z 09004KT 21/20 A3023 RMK A01 T02140200  RH  092%=      5-min Rain = 0
KTA1 101056Z 08004KT 21/20 A3023 RMK A01 T02140200  RH  092%=      5-min Rain = 0
KTA1 101057Z 07003KT 21/20 A3023 RMK A01 T02140201  RH  092%=      5-min Rain = 0
KTA1 101058Z 08004KT 21/20 A3023 RMK A01 T02140201  RH  092%=      5-min Rain = 0
KTA1 101059Z 08004KT 21/20 A3023 RMK A01 T02140200  RH  092%=      5-min Rain = 0
KTA1 101100Z 07004KT 21/20 A3023 RMK A01 T02140200  RH  092%=      5-min Rain = 0
KTA1 101101Z 07004KT 21/20 A3023 RMK A01 T02140200  RH  092%=      5-min Rain = 0
KTA1 101102Z 07004KT 21/20 A3023 RMK A01 T02140200  RH  092%=      5-min Rain = 0
KTA1 101103Z 07003KT 21/20 A3023 RMK A01 T02130199  RH  092%=      5-min Rain = 0
KTA1 101104Z 07003KT 21/20 A3023 RMK A01 T02130199  RH  092%=      5-min Rain = 0
KTA1 101105Z 07003KT 21/20 A3023 RMK A01 T02130199  RH  092%=      5-min Rain = 0
KTA1 101106Z 07003KT 21/20 A3023 RMK A01 T02130199  RH  092%=      5-min Rain = 0
KTA1 101107Z 07003KT 21/20 A3023 RMK A01 T02130200  RH  092%=      5-min Rain = 0
KTA1 101108Z 07003KT 21/20 A3023 RMK A01 T02130200  RH  092%=      5-min Rain = 0
KTA1 101109Z 07003KT 21/20 A3023 RMK A01 T02130200  RH  092%=      5-min Rain = 0
KTA1 101110Z 08003KT 21/20 A3023 RMK A01 T02130200  RH  092%=      5-min Rain = 0
KTA1 101111Z 07003KT 21/20 A3023 RMK A01 T02130200  RH  092%=      5-min Rain = 0
KTA1 101112Z 07003KT 21/20 A3023 RMK A01 T02130200  RH  092%=      5-min Rain = 0
KTA1 101113Z 07003KT 21/20 A3023 RMK A01 T02130200  RH  092%=      5-min Rain = 0
KTA1 101114Z 08004KT 21/20 A3023 RMK A01 T02130200  RH  092%=      5-min Rain = 0
KTA1 101115Z 07004KT 21/20 A3023 RMK A01 T02130200  RH  092%=      5-min Rain = 0
KTA1 101116Z 07004KT 21/20 A3023 RMK A01 T02130200  RH  092%=      5-min Rain = 0
KTA1 101117Z 08004KT 21/20 A3023 RMK A01 T02130200  RH  092%=      5-min Rain = 0
KTA1 101118Z 07004KT 21/20 A3023 RMK A01 T02130200  RH  092%=      5-min Rain = 0
KTA1 101119Z 07003KT 21/20 A3023 RMK A01 T02130200  RH  092%=      5-min Rain = 0
KTA1 101120Z 07004KT 21/20 A3023 RMK A01 T02130200  RH  092%=      5-min Rain = 0
KTA1 101121Z 07003KT 21/20 A3023 RMK A01 T02130200  RH  092%=      5-min Rain = 0
KTA1 101122Z 07003KT 21/20 A3023 RMK A01 T02130200  RH  092%=      5-min Rain = 0
KTA1 101123Z 07003KT 21/20 A3023 RMK A01 T02130200  RH  092%=      5-min Rain = 0
KTA1 101124Z 07004KT 21/20 A3023 RMK A01 T02130200  RH  092%=      5-min Rain = 0
KTA1 101125Z 07004KT 21/20 A3024 RMK A01 T02130200  RH  092%=      5-min Rain = 0
KTA1 101126Z 07004KT 21/20 A3024 RMK A01 T02130200  RH  092%=      5-min Rain = 0
KTA1 101127Z 07003KT 21/20 A3024 RMK A01 T02130200  RH  092%=      5-min Rain = 0
KTA1 101128Z 07004KT 21/20 A3024 RMK A01 T02130200  RH  092%=      5-min Rain = 0
KTA1 101129Z 07004KT 21/20 A3024 RMK A01 T02130200  RH  092%=      5-min Rain = 0
KTA1 101130Z 07004KT 21/20 A3024 RMK A01 T02130200  RH  092%=      5-min Rain = 0
KTA1 101131Z 07005KT 21/20 A3024 RMK A01 T02130200  RH  092%=      5-min Rain = 0
KTA1 101132Z 07005KT 21/20 A3024 RMK A01 T02130200  RH  092%=      5-min Rain = 0
KTA1 101133Z 07005KT 21/20 A3024 RMK A01 T02130200  RH  092%=      5-min Rain = 0
KTA1 101134Z 07005KT 21/20 A3024 RMK A01 T02130200  RH  093%=      5-min Rain = 0
KTA1 101135Z 07004KT 21/20 A3024 RMK A01 T02120200  RH  093%=      5-min Rain = 0
KTA1 101136Z 07003KT 21/20 A3024 RMK A01 T02120200  RH  093%=      5-min Rain = 0
KTA1 101137Z 08004KT 21/20 A3024 RMK A01 T02120200  RH  093%=      5-min Rain = 0
KTA1 101138Z 07004KT 21/20 A3024 RMK A01 T02120200  RH  093%=      5-min Rain = 0
KTA1 101139Z 07003KT 21/20 A3024 RMK A01 T02120200  RH  093%=      5-min Rain = 0
KTA1 101140Z 07004KT 21/20 A3024 RMK A01 T02120200  RH  093%=      5-min Rain = 0
KTA1 101141Z 07004KT 21/20 A3024 RMK A01 T02120200  RH  093%=      5-min Rain = 0
KTA1 101142Z 07004KT 21/20 A3024 RMK A01 T02110200  RH  093%=      5-min Rain = 0
KTA1 101143Z 07004KT 21/20 A3024 RMK A01 T02120200  RH  093%=      5-min Rain = 0
KTA1 101144Z 08003KT 21/20 A3024 RMK A01 T02120200  RH  093%=      5-min Rain = 0
KTA1 101145Z 07004KT 21/20 A3024 RMK A01 T02110201  RH  093%=      5-min Rain = 0
KTA1 101146Z 07004KT 21/20 A3024 RMK A01 T02110200  RH  093%=      5-min Rain = 0
KTA1 101147Z 08004KT 21/20 A3024 RMK A01 T02110200  RH  093%=      5-min Rain = 0
KTA1 101148Z 08004KT 21/20 A3024 RMK A01 T02110200  RH  093%=      5-min Rain = 0
KTA1 101149Z 08004KT 21/20 A3024 RMK A01 T02110200  RH  093%=      5-min Rain = 0
KTA1 101150Z 08005KT 21/20 A3024 RMK A01 T02110200  RH  093%=      5-min Rain = 0
KTA1 101151Z 08004KT 21/20 A3024 RMK A01 T02110200  RH  093%=      5-min Rain = 0
KTA1 101152Z 08003KT 21/20 A3024 RMK A01 T02110200  RH  093%=      5-min Rain = 0
KTA1 101153Z 08004KT 21/20 A3024 RMK A01 T02110200  RH  093%=      5-min Rain = 0
KTA1 101154Z 08004KT 21/20 A3024 RMK A01 T02110200  RH  094%=      5-min Rain = 0
KTA1 101155Z 08003KT 21/20 A3024 RMK A01 T02110200  RH  093%=      5-min Rain = 0
KTA1 101156Z 08004KT 21/20 A3024 RMK A01 T02110200  RH  094%=      5-min Rain = 0
KTA1 101157Z 08004KT 21/20 A3024 RMK A01 T02110200  RH  093%=      5-min Rain = 0
KTA1 101158Z 08005KT 21/20 A3024 RMK A01 T02110200  RH  093%=      5-min Rain = 0
KTA1 101159Z 08004KT 21/20 A3024 RMK A01 T02110200  RH  093%=      5-min Rain = 0
KTA1 101200Z 08004KT 21/20 A3024 RMK A01 T02110200  RH  093%=      5-min Rain = 0
KTA1 101201Z 08004KT 21/20 A3024 RMK A01 T02110200  RH  094%=      5-min Rain = 0
KTA1 101202Z 08004KT 21/20 A3024 RMK A01 T02100200  RH  094%=      5-min Rain = 0
KTA1 101203Z 08004KT 21/20 A3024 RMK A01 T02110200  RH  094%=      5-min Rain = 0
KTA1 101204Z 08004KT 21/20 A3024 RMK A01 T02110200  RH  094%=      5-min Rain = 0
KTA1 101205Z 08004KT 21/20 A3024 RMK A01 T02100200  RH  094%=      5-min Rain = 0
KTA1 101206Z 08004KT 21/20 A3024 RMK A01 T02100200  RH  094%=      5-min Rain = 0
KTA1 101207Z 08004KT 21/20 A3024 RMK A01 T02100201  RH  094%=      5-min Rain = 0
KTA1 101208Z 07004KT 21/20 A3024 RMK A01 T02100200  RH  094%=      5-min Rain = 0
KTA1 101209Z 07004KT 21/20 A3024 RMK A01 T02100200  RH  094%=      5-min Rain = 0
KTA1 101210Z 08003KT 21/20 A3024 RMK A01 T02100201  RH  094%=      5-min Rain = 0
KTA1 101211Z 07003KT 21/20 A3024 RMK A01 T02100201  RH  094%=      5-min Rain = 0
KTA1 101212Z 07003KT 21/20 A3024 RMK A01 T02100201  RH  094%=      5-min Rain = 0
KTA1 101213Z 07003KT 21/20 A3024 RMK A01 T02100201  RH  094%=      5-min Rain = 0
KTA1 101214Z 06003KT 21/20 A3024 RMK A01 T02100200  RH  094%=      5-min Rain = 0
KTA1 101215Z 06003KT 21/20 A3024 RMK A01 T02100200  RH  094%=      5-min Rain = 0
KTA1 101216Z 06003KT 21/20 A3024 RMK A01 T02100200  RH  094%=      5-min Rain = 0
KTA1 101217Z 06003KT 21/20 A3024 RMK A01 T02100200  RH  094%=      5-min Rain = 0
KTA1 101218Z 07003KT 21/20 A3024 RMK A01 T02100200  RH  094%=      5-min Rain = 0
KTA1 101219Z 07003KT 21/20 A3024 RMK A01 T02100200  RH  094%=      5-min Rain = 0
KTA1 101220Z 07003KT 21/20 A3024 RMK A01 T02100200  RH  094%=      5-min Rain = 0
KTA1 101221Z 07003KT 21/20 A3024 RMK A01 T02100200  RH  094%=      5-min Rain = 0
KTA1 101222Z 07003KT 21/20 A3024 RMK A01 T02100200  RH  094%=      5-min Rain = 0
KTA1 101223Z 07003KT 21/20 A3024 RMK A01 T02110201  RH  094%=      5-min Rain = 0
KTA1 101224Z 07003KT 21/20 A3024 RMK A01 T02110201  RH  094%=      5-min Rain = 0
KTA1 101225Z 07003KT 21/20 A3024 RMK A01 T02110200  RH  094%=      5-min Rain = 0
KTA1 101226Z 07003KT 21/20 A3024 RMK A01 T02110200  RH  094%=      5-min Rain = 0
KTA1 101227Z 08003KT 21/20 A3024 RMK A01 T02110200  RH  094%=      5-min Rain = 0
KTA1 101228Z 07003KT 21/20 A3024 RMK A01 T02110200  RH  094%=      5-min Rain = 0
KTA1 101229Z 07004KT 21/20 A3025 RMK A01 T02110200  RH  093%=      5-min Rain = 0
KTA1 101230Z 07004KT 21/20 A3025 RMK A01 T02110199  RH  093%=      5-min Rain = 0
KTA1 101231Z 07003KT 21/20 A3025 RMK A01 T02100199  RH  093%=      5-min Rain = 0
KTA1 101232Z 07003KT 21/20 A3025 RMK A01 T02110200  RH  093%=      5-min Rain = 0
KTA1 101233Z 07003KT 21/20 A3025 RMK A01 T02110200  RH  093%=      5-min Rain = 0
KTA1 101234Z 06003KT 21/20 A3025 RMK A01 T02110200  RH  093%=      5-min Rain = 0
KTA1 101235Z 08003KT 21/20 A3025 RMK A01 T02110200  RH  093%=      5-min Rain = 0
KTA1 101236Z 07002KT 21/20 A3025 RMK A01 T02110200  RH  093%=      5-min Rain = 0
KTA1 101237Z 07003KT 21/20 A3025 RMK A01 T02110200  RH  093%=      5-min Rain = 0
KTA1 101238Z 07003KT 21/20 A3025 RMK A01 T02120201  RH  093%=      5-min Rain = 0
KTA1 101239Z 06002KT 21/20 A3025 RMK A01 T02120200  RH  093%=      5-min Rain = 0
KTA1 101240Z 06002KT 21/20 A3025 RMK A01 T02110200  RH  093%=      5-min Rain = 0
KTA1 101241Z 06002KT 21/20 A3025 RMK A01 T02110201  RH  093%=      5-min Rain = 0
KTA1 101242Z 07002KT 21/20 A3025 RMK A01 T02120201  RH  093%=      5-min Rain = 0
KTA1 101243Z 06002KT 21/20 A3025 RMK A01 T02110200  RH  093%=      5-min Rain = 0
KTA1 101244Z 06002KT 21/20 A3025 RMK A01 T02120201  RH  094%=      5-min Rain = 0
KTA1 101245Z 08002KT 21/20 A3025 RMK A01 T02120201  RH  093%=      5-min Rain = 0
KTA1 101246Z 07003KT 21/20 A3025 RMK A01 T02120201  RH  093%=      5-min Rain = 0
KTA1 101247Z 07002KT 21/20 A3025 RMK A01 T02120200  RH  093%=      5-min Rain = 0
KTA1 101248Z 07002KT 21/20 A3025 RMK A01 T02120200  RH  093%=      5-min Rain = 0
KTA1 101249Z 07003KT 21/20 A3025 RMK A01 T02120200  RH  093%=      5-min Rain = 0
KTA1 101250Z 08003KT 21/20 A3025 RMK A01 T02120200  RH  093%=      5-min Rain = 0
KTA1 101251Z 08003KT 21/20 A3025 RMK A01 T02120200  RH  093%=      5-min Rain = 0
KTA1 101252Z 09003KT 21/20 A3025 RMK A01 T02120201  RH  093%=      5-min Rain = 0
KTA1 101253Z 09002KT 21/20 A3025 RMK A01 T02120200  RH  093%=      5-min Rain = 0
KTA1 101254Z 09003KT 21/20 A3025 RMK A01 T02120200  RH  093%=      5-min Rain = 0
KTA1 101255Z 10002KT 21/20 A3025 RMK A01 T02120200  RH  093%=      5-min Rain = 0
KTA1 101256Z 09003KT 21/20 A3025 RMK A01 T02120200  RH  093%=      5-min Rain = 0
KTA1 101257Z 09002KT 21/20 A3025 RMK A01 T02120200  RH  093%=      5-min Rain = 0
KTA1 101258Z 08002KT 21/20 A3025 RMK A01 T02130200  RH  093%=      5-min Rain = 0
KTA1 101259Z 09002KT 21/20 A3025 RMK A01 T02130201  RH  093%=      5-min Rain = 0
KTA1 101300Z 09002KT 21/20 A3025 RMK A01 T02130200  RH  092%=      5-min Rain = 0
KTA1 101301Z 09003KT 21/20 A3025 RMK A01 T02130200  RH  092%=      5-min Rain = 0
KTA1 101302Z 09003KT 21/20 A3025 RMK A01 T02130200  RH  092%=      5-min Rain = 0
KTA1 101303Z 09003KT 21/20 A3025 RMK A01 T02140200  RH  092%=      5-min Rain = 0
KTA1 101304Z 09002KT 21/20 A3025 RMK A01 T02130199  RH  092%=      5-min Rain = 0
KTA1 101305Z 09003KT 21/20 A3025 RMK A01 T02130200  RH  092%=      5-min Rain = 0
KTA1 101306Z 10002KT 21/20 A3025 RMK A01 T02130200  RH  092%=      5-min Rain = 0
KTA1 101307Z 11002KT 21/20 A3025 RMK A01 T02140200  RH  092%=      5-min Rain = 0
KTA1 101308Z 09002KT 21/20 A3025 RMK A01 T02140200  RH  092%=      5-min Rain = 0
KTA1 101309Z 10001KT 21/20 A3025 RMK A01 T02140201  RH  092%=      5-min Rain = 0
KTA1 101310Z 10002KT 21/20 A3026 RMK A01 T02140201  RH  092%=      5-min Rain = 0
KTA1 101311Z 11002KT 22/20 A3026 RMK A01 T02150201  RH  092%=      5-min Rain = 0
KTA1 101312Z 11002KT 22/20 A3026 RMK A01 T02150201  RH  092%=      5-min Rain = 0
KTA1 101313Z 12002KT 22/20 A3026 RMK A01 T02150201  RH  092%=      5-min Rain = 0
KTA1 101314Z 13002KT 22/20 A3026 RMK A01 T02150201  RH  092%=      5-min Rain = 0
KTA1 101315Z 13003KT 22/20 A3026 RMK A01 T02160201  RH  091%=      5-min Rain = 0
KTA1 101316Z 13004KT 22/20 A3026 RMK A01 T02160200  RH  091%=      5-min Rain = 0
KTA1 101317Z 13004KT 22/20 A3026 RMK A01 T02160198  RH  089%=      5-min Rain = 0
KTA1 101318Z 13004KT 22/20 A3026 RMK A01 T02170196  RH  088%=      5-min Rain = 0
KTA1 101319Z 13004KT 22/20 A3026 RMK A01 T02180197  RH  088%=      5-min Rain = 0
KTA1 101320Z 13005KT 22/20 A3026 RMK A01 T02180197  RH  088%=      5-min Rain = 0
KTA1 101321Z 12005KT 22/20 A3026 RMK A01 T02180196  RH  087%=      5-min Rain = 0
KTA1 101322Z 12005KT 22/20 A3026 RMK A01 T02190196  RH  087%=      5-min Rain = 0
KTA1 101323Z 12004KT 22/20 A3026 RMK A01 T02190196  RH  087%=      5-min Rain = 0
KTA1 101324Z 12004KT 22/20 A3026 RMK A01 T02190197  RH  087%=      5-min Rain = 0
KTA1 101325Z 12003KT 22/20 A3026 RMK A01 T02190197  RH  087%=      5-min Rain = 0
KTA1 101326Z 12003KT 22/20 A3026 RMK A01 T02190197  RH  087%=      5-min Rain = 0
KTA1 101327Z 12004KT 22/20 A3026 RMK A01 T02200198  RH  087%=      5-min Rain = 0
KTA1 101328Z 11004KT 22/20 A3026 RMK A01 T02200197  RH  087%=      5-min Rain = 0
KTA1 101329Z 11004KT 22/20 A3026 RMK A01 T02200197  RH  087%=      5-min Rain = 0
KTA1 101330Z 10004KT 22/20 A3026 RMK A01 T02200197  RH  087%=      5-min Rain = 0
KTA1 101331Z 10004KT 22/20 A3026 RMK A01 T02200197  RH  087%=      5-min Rain = 0
KTA1 101332Z 11004KT 22/20 A3026 RMK A01 T02200197  RH  087%=      5-min Rain = 0
KTA1 101333Z 12004KT 22/20 A3026 RMK A01 T02200196  RH  087%=      5-min Rain = 0
KTA1 101334Z 11003KT 22/20 A3026 RMK A01 T02200196  RH  087%=      5-min Rain = 0
KTA1 101335Z 11004KT 22/20 A3026 RMK A01 T02200197  RH  087%=      5-min Rain = 0
KTA1 101336Z 11004KT 22/20 A3026 RMK A01 T02200196  RH  086%=      5-min Rain = 0
KTA1 101337Z 12005KT 22/20 A3026 RMK A01 T02200196  RH  086%=      5-min Rain = 0
KTA1 101338Z 11005KT 22/20 A3026 RMK A01 T02200195  RH  086%=      5-min Rain = 0
KTA1 101339Z 10004KT 22/20 A3026 RMK A01 T02200195  RH  086%=      5-min Rain = 0
KTA1 101340Z 10004KT 22/20 A3026 RMK A01 T02200196  RH  086%=      5-min Rain = 0
KTA1 101341Z 11005KT 22/20 A3026 RMK A01 T02200196  RH  086%=      5-min Rain = 0
KTA1 101342Z 11005KT 22/20 A3026 RMK A01 T02200195  RH  085%=      5-min Rain = 0
KTA1 101343Z 12005KT 22/19 A3026 RMK A01 T02200194  RH  085%=      5-min Rain = 0
KTA1 101344Z 11005KT 22/19 A3026 RMK A01 T02200194  RH  085%=      5-min Rain = 0
KTA1 101345Z 11005KT 22/19 A3026 RMK A01 T02200194  RH  085%=      5-min Rain = 0
KTA1 101346Z 11005KT 22/20 A3026 RMK A01 T02200195  RH  085%=      5-min Rain = 0
KTA1 101347Z 11004KT 22/19 A3026 RMK A01 T02200194  RH  085%=      5-min Rain = 0
KTA1 101348Z 12005KT 22/20 A3026 RMK A01 T02210195  RH  085%=      5-min Rain = 0
KTA1 101349Z 11005KT 22/20 A3026 RMK A01 T02210195  RH  085%=      5-min Rain = 0
KTA1 101350Z 12005KT 22/20 A3026 RMK A01 T02210195  RH  085%=      5-min Rain = 0
KTA1 101351Z 13005KT 22/19 A3026 RMK A01 T02210194  RH  084%=      5-min Rain = 0
KTA1 101352Z 12005KT 22/19 A3026 RMK A01 T02220194  RH  084%=      5-min Rain = 0
KTA1 101353Z 11005KT 22/19 A3026 RMK A01 T02220194  RH  084%=      5-min Rain = 0
KTA1 101354Z 12005KT 22/19 A3027 RMK A01 T02220194  RH  084%=      5-min Rain = 0
KTA1 101355Z 12004KT 22/19 A3027 RMK A01 T02220194  RH  084%=      5-min Rain = 0
KTA1 101356Z 13005KT 22/19 A3027 RMK A01 T02220194  RH  085%=      5-min Rain = 0
KTA1 101357Z 13004KT 22/19 A3027 RMK A01 T02220194  RH  084%=      5-min Rain = 0
KTA1 101358Z 11004KT 22/19 A3027 RMK A01 T02220194  RH  084%=      5-min Rain = 0
KTA1 101359Z 11005KT 22/19 A3027 RMK A01 T02220194  RH  084%=      5-min Rain = 0
KTA1 101400Z 12005KT 22/19 A3027 RMK A01 T02220194  RH  084%=      5-min Rain = 0
KTA1 101401Z 12004KT 22/19 A3027 RMK A01 T02220194  RH  084%=      5-min Rain = 0
KTA1 101402Z 12004KT 22/20 A3027 RMK A01 T02220195  RH  084%=      5-min Rain = 0
KTA1 101403Z 13005KT 22/19 A3027 RMK A01 T02220193  RH  084%=      5-min Rain = 0
KTA1 101404Z 12004KT 22/19 A3027 RMK A01 T02220194  RH  084%=      5-min Rain = 0
KTA1 101405Z 12005KT 22/19 A3027 RMK A01 T02220194  RH  084%=      5-min Rain = 0
KTA1 101406Z 13004KT 22/19 A3027 RMK A01 T02220194  RH  084%=      5-min Rain = 0
KTA1 101407Z 13005KT 22/19 A3027 RMK A01 T02220194  RH  084%=      5-min Rain = 0
KTA1 101408Z 12004KT 22/19 A3027 RMK A01 T02230193  RH  083%=      5-min Rain = 0
KTA1 101409Z 12003KT 22/19 A3027 RMK A01 T02230194  RH  084%=      5-min Rain = 0
KTA1 101410Z 13004KT 22/19 A3027 RMK A01 T02230194  RH  084%=      5-min Rain = 0
KTA1 101411Z 13004KT 22/19 A3027 RMK A01 T02230194  RH  084%=      5-min Rain = 0
KTA1 101412Z 12004KT 22/19 A3027 RMK A01 T02230194  RH  084%=      5-min Rain = 0
KTA1 101413Z 13004KT 22/20 A3027 RMK A01 T02230195  RH  084%=      5-min Rain = 0
KTA1 101414Z 13004KT 22/19 A3027 RMK A01 T02240194  RH  083%=      5-min Rain = 0
KTA1 101415Z 14004KT 22/19 A3027 RMK A01 T02240194  RH  083%=      5-min Rain = 0
KTA1 101416Z 13003KT 22/20 A3027 RMK A01 T02240195  RH  083%=      5-min Rain = 0
KTA1 101417Z 12004KT 22/20 A3027 RMK A01 T02240196  RH  084%=      5-min Rain = 0
KTA1 101418Z 12004KT 23/20 A3027 RMK A01 T02250196  RH  084%=      5-min Rain = 0
KTA1 101419Z 12004KT 23/20 A3027 RMK A01 T02250196  RH  083%=      5-min Rain = 0
KTA1 101420Z 13004KT 23/20 A3027 RMK A01 T02250196  RH  084%=      5-min Rain = 0
KTA1 101421Z 13005KT 23/20 A3027 RMK A01 T02250196  RH  083%=      5-min Rain = 0
KTA1 101422Z 13005KT 23/19 A3027 RMK A01 T02250194  RH  083%=      5-min Rain = 0
KTA1 101423Z 13004KT 23/19 A3027 RMK A01 T02250194  RH  082%=      5-min Rain = 0
KTA1 101424Z 15005KT 23/19 A3027 RMK A01 T02260194  RH  082%=      5-min Rain = 0
KTA1 101425Z 14003KT 23/19 A3027 RMK A01 T02260194  RH  082%=      5-min Rain = 0
KTA1 101426Z 14005KT 23/20 A3027 RMK A01 T02260195  RH  082%=      5-min Rain = 0
KTA1 101427Z 14005KT 23/19 A3027 RMK A01 T02260194  RH  082%=      5-min Rain = 0
KTA1 101428Z 15005KT 23/19 A3027 RMK A01 T02260194  RH  082%=      5-min Rain = 0
KTA1 101429Z 14005KT 23/19 A3027 RMK A01 T02270194  RH  082%=      5-min Rain = 0
KTA1 101430Z 14005KT 23/19 A3027 RMK A01 T02270194  RH  082%=      5-min Rain = 0
KTA1 101431Z 14004KT 23/19 A3027 RMK A01 T02270194  RH  082%=      5-min Rain = 0
KTA1 101432Z 14004KT 23/19 A3027 RMK A01 T02270194  RH  081%=      5-min Rain = 0
KTA1 101433Z 15003KT 23/19 A3027 RMK A01 T02270194  RH  082%=      5-min Rain = 0
KTA1 101434Z 15003KT 23/20 A3027 RMK A01 T02270195  RH  082%=      5-min Rain = 0
KTA1 101435Z 15002KT 23/20 A3027 RMK A01 T02280196  RH  082%=      5-min Rain = 0
KTA1 101436Z 14004KT 23/20 A3027 RMK A01 T02290196  RH  082%=      5-min Rain = 0
KTA1 101437Z 16004KT 23/20 A3027 RMK A01 T02290195  RH  081%=      5-min Rain = 0
KTA1 101438Z 15004KT 23/20 A3027 RMK A01 T02300196  RH  081%=      5-min Rain = 0
KTA1 101439Z 15003KT 23/20 A3027 RMK A01 T02300195  RH  081%=      5-min Rain = 0
KTA1 101440Z 15003KT 23/20 A3027 RMK A01 T02300196  RH  081%=      5-min Rain = 0
KTA1 101441Z 14004KT 23/20 A3027 RMK A01 T02310197  RH  081%=      5-min Rain = 0
KTA1 101442Z 15005KT 23/20 A3027 RMK A01 T02310197  RH  081%=      5-min Rain = 0
KTA1 101443Z 15005KT 23/20 A3027 RMK A01 T02320196  RH  080%=      5-min Rain = 0
KTA1 101444Z 15005KT 23/20 A3027 RMK A01 T02310195  RH  080%=      5-min Rain = 0
KTA1 101445Z 14004KT 23/20 A3027 RMK A01 T02310196  RH  081%=      5-min Rain = 0
KTA1 101446Z 16005KT 23/20 A3027 RMK A01 T02310196  RH  081%=      5-min Rain = 0
KTA1 101447Z 16005KT 23/20 A3027 RMK A01 T02310195  RH  080%=      5-min Rain = 0
KTA1 101448Z 15004KT 23/20 A3027 RMK A01 T02310196  RH  081%=      5-min Rain = 0
KTA1 101449Z 16005KT 23/20 A3027 RMK A01 T02310196  RH  081%=      5-min Rain = 0
KTA1 101450Z 16004KT 23/20 A3027 RMK A01 T02310196  RH  081%=      5-min Rain = 0
KTA1 101451Z 16005KT 23/20 A3027 RMK A01 T02310197  RH  081%=      5-min Rain = 0
KTA1 101452Z 16005KT 23/20 A3027 RMK A01 T02310198  RH  081%=      5-min Rain = 0
KTA1 101453Z 17005KT 23/20 A3027 RMK A01 T02320197  RH  081%=      5-min Rain = 0
KTA1 101454Z 17006KT 23/20 A3027 RMK A01 T02320196  RH  080%=      5-min Rain = 0
KTA1 101455Z 17004KT 23/20 A3027 RMK A01 T02310195  RH  080%=      5-min Rain = 0
KTA1 101456Z 17005KT 23/20 A3027 RMK A01 T02310196  RH  081%=      5-min Rain = 0
KTA1 101457Z 18005KT 23/20 A3027 RMK A01 T02300196  RH  081%=      5-min Rain = 0
KTA1 101458Z 17005KT 23/20 A3027 RMK A01 T02300196  RH  081%=      5-min Rain = 0
KTA1 101459Z 17005KT 23/20 A3027 RMK A01 T02300196  RH  081%=      5-min Rain = 0
KTA1 101500Z 15003KT 23/20 A3027 RMK A01 T02310197  RH  082%=      5-min Rain = 0
KTA1 101501Z 16003KT 23/20 A3027 RMK A01 T02310198  RH  082%=      5-min Rain = 0
KTA1 101502Z 18002KT 23/20 A3027 RMK A01 T02320198  RH  081%=      5-min Rain = 0
KTA1 101503Z 18003KT 23/20 A3027 RMK A01 T02320197  RH  081%=      5-min Rain = 0
KTA1 101504Z 16003KT 23/20 A3027 RMK A01 T02320197  RH  081%=      5-min Rain = 0
KTA1 101505Z 16003KT 23/20 A3027 RMK A01 T02320198  RH  081%=      5-min Rain = 0
KTA1 101506Z 18003KT 23/20 A3027 RMK A01 T02320198  RH  081%=      5-min Rain = 0
KTA1 101507Z 20003KT 23/20 A3027 RMK A01 T02330197  RH  080%=      5-min Rain = 0
KTA1 101508Z 19002KT 23/20 A3027 RMK A01 T02320196  RH  080%=      5-min Rain = 0
KTA1 101509Z 18004KT 23/20 A3027 RMK A01 T02320197  RH  081%=      5-min Rain = 0
KTA1 101510Z 17004KT 23/20 A3027 RMK A01 T02320198  RH  081%=      5-min Rain = 0
KTA1 101511Z 18005KT 23/20 A3027 RMK A01 T02330198  RH  081%=      5-min Rain = 0
KTA1 101512Z 18004KT 23/20 A3027 RMK A01 T02330196  RH  080%=      5-min Rain = 0
KTA1 101513Z 18004KT 23/20 A3027 RMK A01 T02330196  RH  080%=      5-min Rain = 0
KTA1 101514Z 19004KT 23/20 A3027 RMK A01 T02330197  RH  080%=      5-min Rain = 0
KTA1 101515Z 17004KT 23/20 A3027 RMK A01 T02320197  RH  080%=      5-min Rain = 0
KTA1 101516Z 17004KT 23/20 A3027 RMK A01 T02320197  RH  080%=      5-min Rain = 0
KTA1 101517Z 18003KT 23/20 A3027 RMK A01 T02330197  RH  080%=      5-min Rain = 0
KTA1 101518Z 20003KT 23/20 A3027 RMK A01 T02340197  RH  080%=      5-min Rain = 0
KTA1 101519Z 20003KT 23/20 A3027 RMK A01 T02340197  RH  080%=      5-min Rain = 0
KTA1 101520Z 19003KT 23/20 A3027 RMK A01 T02340196  RH  079%=      5-min Rain = 0
KTA1 101521Z 16002KT 23/20 A3027 RMK A01 T02340198  RH  080%=      5-min Rain = 0
KTA1 101522Z 17003KT 23/20 A3027 RMK A01 T02340198  RH  080%=      5-min Rain = 0
KTA1 101523Z 13002KT 24/20 A3027 RMK A01 T02350197  RH  079%=      5-min Rain = 0
KTA1 101524Z 22003KT 24/20 A3027 RMK A01 T02350197  RH  079%=      5-min Rain = 0
KTA1 101525Z 18002KT 23/20 A3027 RMK A01 T02340196  RH  079%=      5-min Rain = 0
KTA1 101526Z 17004KT 23/20 A3027 RMK A01 T02340197  RH  080%=      5-min Rain = 0
KTA1 101527Z 16003KT 24/20 A3027 RMK A01 T02350198  RH  080%=      5-min Rain = 0
KTA1 101528Z 19005KT 24/20 A3027 RMK A01 T02360198  RH  079%=      5-min Rain = 0
KTA1 101529Z 20003KT 24/20 A3027 RMK A01 T02360197  RH  079%=      5-min Rain = 0
KTA1 101530Z 19002KT 24/20 A3027 RMK A01 T02360196  RH  078%=      5-min Rain = 0
KTA1 101531Z 18003KT 24/20 A3027 RMK A01 T02360196  RH  078%=      5-min Rain = 0
KTA1 101532Z 17003KT 24/20 A3027 RMK A01 T02360196  RH  078%=      5-min Rain = 0
KTA1 101533Z 17003KT 24/20 A3027 RMK A01 T02350196  RH  079%=      5-min Rain = 0
KTA1 101534Z 17003KT 24/20 A3027 RMK A01 T02350196  RH  079%=      5-min Rain = 0
KTA1 101535Z 18003KT 24/20 A3027 RMK A01 T02350197  RH  079%=      5-min Rain = 0
KTA1 101536Z 19002KT 24/20 A3027 RMK A01 T02350196  RH  079%=      5-min Rain = 0
KTA1 101537Z 18002KT 24/20 A3026 RMK A01 T02360199  RH  079%=      5-min Rain = 0
KTA1 101538Z 18002KT 24/20 A3026 RMK A01 T02380198  RH  079%=      5-min Rain = 0
KTA1 101539Z 17003KT 24/20 A3026 RMK A01 T02390199  RH  078%=      5-min Rain = 0
KTA1 101540Z 18004KT 24/20 A3026 RMK A01 T02390197  RH  077%=      5-min Rain = 0
KTA1 101541Z 17003KT 24/20 A3026 RMK A01 T02380197  RH  078%=      5-min Rain = 0
KTA1 101542Z 19004KT 24/20 A3026 RMK A01 T02370197  RH  078%=      5-min Rain = 0
KTA1 101543Z 21003KT 24/20 A3026 RMK A01 T02370196  RH  078%=      5-min Rain = 0
KTA1 101544Z 21003KT 24/20 A3026 RMK A01 T02370196  RH  078%=      5-min Rain = 0
KTA1 101545Z 22003KT 24/20 A3026 RMK A01 T02370197  RH  078%=      5-min Rain = 0
KTA1 101546Z 21002KT 24/20 A3026 RMK A01 T02370197  RH  078%=      5-min Rain = 0
KTA1 101547Z 18004KT 24/20 A3026 RMK A01 T02370197  RH  078%=      5-min Rain = 0
KTA1 101548Z 18003KT 24/20 A3026 RMK A01 T02370198  RH  079%=      5-min Rain = 0
KTA1 101549Z 19006KT 24/20 A3026 RMK A01 T02380198  RH  078%=      5-min Rain = 0
KTA1 101550Z 19006KT 24/20 A3027 RMK A01 T02390198  RH  078%=      5-min Rain = 0
KTA1 101551Z 20005KT 24/20 A3027 RMK A01 T02390198  RH  078%=      5-min Rain = 0
KTA1 101552Z 20006KT 24/20 A3027 RMK A01 T02390197  RH  078%=      5-min Rain = 0
KTA1 101553Z 20005KT 24/20 A3027 RMK A01 T02390197  RH  077%=      5-min Rain = 0
KTA1 101554Z 20004KT 24/20 A3027 RMK A01 T02380196  RH  077%=      5-min Rain = 0
KTA1 101555Z 19002KT 24/20 A3027 RMK A01 T02370196  RH  078%=      5-min Rain = 0
KTA1 101556Z 21003KT 24/20 A3027 RMK A01 T02370196  RH  078%=      5-min Rain = 0
KTA1 101557Z 19002KT 24/20 A3027 RMK A01 T02370196  RH  078%=      5-min Rain = 0
KTA1 101558Z 18005KT 24/20 A3027 RMK A01 T02370198  RH  078%=      5-min Rain = 0
KTA1 101559Z 19005KT 24/20 A3027 RMK A01 T02380198  RH  078%=      5-min Rain = 0
KTA1 101600Z 18005KT 24/20 A3027 RMK A01 T02390197  RH  077%=      5-min Rain = 0
KTA1 101601Z 17004KT 24/20 A3027 RMK A01 T02380198  RH  078%=      5-min Rain = 0
KTA1 101602Z 18006KT 24/20 A3027 RMK A01 T02380197  RH  078%=      5-min Rain = 0
KTA1 101603Z 17004KT 24/20 A3027 RMK A01 T02380197  RH  078%=      5-min Rain = 0
KTA1 101604Z 19003KT 24/20 A3027 RMK A01 T02380197  RH  078%=      5-min Rain = 0
KTA1 101605Z 18003KT 24/20 A3027 RMK A01 T02390196  RH  077%=      5-min Rain = 0
KTA1 101606Z 20003KT 24/20 A3027 RMK A01 T02380198  RH  078%=      5-min Rain = 0
KTA1 101607Z 20003KT 24/20 A3027 RMK A01 T02380196  RH  077%=      5-min Rain = 0
KTA1 101608Z 21002KT 24/20 A3027 RMK A01 T02380196  RH  077%=      5-min Rain = 0
KTA1 101609Z 19002KT 24/20 A3027 RMK A01 T02380197  RH  078%=      5-min Rain = 0
KTA1 101610Z 19003KT 24/20 A3027 RMK A01 T02380198  RH  078%=      5-min Rain = 0
KTA1 101611Z 20004KT 24/20 A3027 RMK A01 T02390197  RH  077%=      5-min Rain = 0
KTA1 101612Z 20003KT 24/20 A3027 RMK A01 T02390198  RH  077%=      5-min Rain = 0
KTA1 101613Z 21003KT 24/20 A3027 RMK A01 T02400197  RH  077%=      5-min Rain = 0
KTA1 101614Z 19005KT 24/20 A3027 RMK A01 T02400197  RH  077%=      5-min Rain = 0
KTA1 101615Z 20003KT 24/20 A3027 RMK A01 T02400198  RH  077%=      5-min Rain = 0
KTA1 101616Z 21002KT 24/20 A3027 RMK A01 T02400196  RH  076%=      5-min Rain = 0
KTA1 101617Z 21003KT 24/20 A3027 RMK A01 T02400197  RH  077%=      5-min Rain = 0
KTA1 101618Z 20003KT 24/20 A3027 RMK A01 T02390197  RH  077%=      5-min Rain = 0
KTA1 101619Z 20004KT 24/20 A3027 RMK A01 T02390198  RH  077%=      5-min Rain = 0
KTA1 101620Z 19003KT 24/20 A3027 RMK A01 T02400197  RH  077%=      5-min Rain = 0
KTA1 101621Z 18002KT 24/20 A3027 RMK A01 T02400197  RH  077%=      5-min Rain = 0
KTA1 101622Z 19003KT 24/20 A3027 RMK A01 T02400197  RH  077%=      5-min Rain = 0
KTA1 101623Z 19003KT 24/20 A3027 RMK A01 T02400196  RH  076%=      5-min Rain = 0
KTA1 101624Z 22002KT 24/20 A3027 RMK A01 T02400197  RH  077%=      5-min Rain = 0
KTA1 101625Z 22002KT 24/20 A3027 RMK A01 T02400196  RH  076%=      5-min Rain = 0
KTA1 101626Z 22001KT 24/20 A3027 RMK A01 T02400196  RH  076%=      5-min Rain = 0
KTA1 101627Z 24002KT 24/20 A3027 RMK A01 T02400197  RH  077%=      5-min Rain = 0
KTA1 101628Z 22002KT 24/20 A3027 RMK A01 T02410198  RH  077%=      5-min Rain = 0
KTA1 101629Z 16002KT 24/20 A3027 RMK A01 T02430199  RH  077%=      5-min Rain = 0
KTA1 101630Z 16002KT 24/20 A3027 RMK A01 T02430198  RH  076%=      5-min Rain = 0
KTA1 101631Z 12001KT 24/20 A3027 RMK A01 T02440197  RH  075%=      5-min Rain = 0
KTA1 101632Z 10001KT 24/20 A3026 RMK A01 T02440197  RH  075%=      5-min Rain = 0
KTA1 101633Z 11001KT 24/20 A3026 RMK A01 T02440197  RH  075%=      5-min Rain = 0
KTA1 101634Z 13001KT 24/20 A3026 RMK A01 T02430198  RH  076%=      5-min Rain = 0
KTA1 101635Z 14003KT 24/20 A3026 RMK A01 T02440198  RH  076%=      5-min Rain = 0
KTA1 101636Z 18005KT 25/20 A3026 RMK A01 T02450198  RH  075%=      5-min Rain = 0
KTA1 101637Z 18006KT 25/20 A3026 RMK A01 T02460195  RH  073%=      5-min Rain = 0
KTA1 101638Z 17004KT 25/20 A3026 RMK A01 T02460196  RH  074%=      5-min Rain = 0
KTA1 101639Z 20003KT 25/20 A3026 RMK A01 T02460196  RH  074%=      5-min Rain = 0
KTA1 101640Z 18004KT 25/20 A3026 RMK A01 T02460196  RH  074%=      5-min Rain = 0
KTA1 101641Z 19004KT 25/20 A3026 RMK A01 T02470196  RH  074%=      5-min Rain = 0
KTA1 101642Z 19004KT 25/20 A3026 RMK A01 T02470197  RH  074%=      5-min Rain = 0
KTA1 101643Z 20003KT 25/20 A3026 RMK A01 T02470196  RH  073%=      5-min Rain = 0
KTA1 101644Z 21003KT 25/20 A3026 RMK A01 T02470195  RH  073%=      5-min Rain = 0
KTA1 101645Z 20002KT 25/20 A3026 RMK A01 T02460195  RH  073%=      5-min Rain = 0
KTA1 101646Z 20003KT 25/20 A3026 RMK A01 T02460196  RH  074%=      5-min Rain = 0
KTA1 101647Z 19006KT 25/20 A3026 RMK A01 T02480198  RH  074%=      5-min Rain = 0
KTA1 101648Z 19005KT 25/20 A3026 RMK A01 T02500199  RH  073%=      5-min Rain = 0
KTA1 101649Z 21004KT 25/20 A3026 RMK A01 T02510197  RH  072%=      5-min Rain = 0
KTA1 101650Z 20003KT 25/20 A3026 RMK A01 T02520198  RH  072%=      5-min Rain = 0
KTA1 101651Z 21004KT 25/20 A3026 RMK A01 T02510197  RH  072%=      5-min Rain = 0
KTA1 101652Z 20002KT 25/20 A3026 RMK A01 T02510197  RH  072%=      5-min Rain = 0
KTA1 101653Z 21002KT 25/20 A3026 RMK A01 T02510196  RH  072%=      5-min Rain = 0
KTA1 101654Z 19002KT 25/20 A3026 RMK A01 T02500196  RH  072%=      5-min Rain = 0
KTA1 101655Z 21004KT 25/20 A3026 RMK A01 T02500197  RH  072%=      5-min Rain = 0
KTA1 101656Z 20005KT 25/20 A3026 RMK A01 T02520197  RH  072%=      5-min Rain = 0
KTA1 101657Z 18005KT 25/20 A3026 RMK A01 T02520198  RH  072%=      5-min Rain = 0
KTA1 101658Z 17005KT 25/20 A3026 RMK A01 T02530196  RH  071%=      5-min Rain = 0
KTA1 101659Z 15003KT 25/20 A3026 RMK A01 T02530196  RH  071%=      5-min Rain = 0
KTA1 101700Z 14002KT 25/20 A3026 RMK A01 T02540196  RH  070%=      5-min Rain = 0
KTA1 101701Z 14002KT 25/20 A3026 RMK A01 T02540196  RH  070%=      5-min Rain = 0
KTA1 101702Z 13002KT 26/20 A3026 RMK A01 T02550197  RH  070%=      5-min Rain = 0
KTA1 101703Z 16004KT 26/20 A3026 RMK A01 T02560198  RH  070%=      5-min Rain = 0
KTA1 101704Z 13005KT 26/20 A3026 RMK A01 T02570198  RH  070%=      5-min Rain = 0
KTA1 101705Z 14003KT 26/20 A3026 RMK A01 T02570198  RH  070%=      5-min Rain = 0
KTA1 101706Z 13005KT 26/20 A3026 RMK A01 T02570199  RH  070%=      5-min Rain = 0
KTA1 101707Z 14006KT 26/20 A3026 RMK A01 T02580200  RH  070%=      5-min Rain = 0
KTA1 101708Z 12006KT 26/20 A3026 RMK A01 T02580199  RH  070%=      5-min Rain = 0
KTA1 101709Z 12006KT 26/20 A3026 RMK A01 T02580199  RH  070%=      5-min Rain = 0
KTA1 101710Z 12006KT 26/20 A3026 RMK A01 T02570198  RH  070%=      5-min Rain = 0
KTA1 101711Z 11002KT 26/20 A3026 RMK A01 T02550196  RH  070%=      5-min Rain = 0
KTA1 101712Z 13004KT 25/20 A3026 RMK A01 T02540198  RH  071%=      5-min Rain = 0
KTA1 101713Z 13004KT 25/20 A3026 RMK A01 T02540198  RH  071%=      5-min Rain = 0
KTA1 101714Z 13004KT 26/20 A3026 RMK A01 T02550197  RH  070%=      5-min Rain = 0
KTA1 101715Z 15003KT 26/20 A3025 RMK A01 T02560198  RH  070%=      5-min Rain = 0
KTA1 101716Z 13002KT 26/20 A3025 RMK A01 T02570197  RH  069%=      5-min Rain = 0
KTA1 101717Z 13004KT 26/20 A3025 RMK A01 T02590200  RH  070%=      5-min Rain = 0
KTA1 101718Z 15004KT 26/20 A3025 RMK A01 T02600198  RH  069%=      5-min Rain = 0
KTA1 101719Z 16004KT 26/20 A3025 RMK A01 T02610197  RH  068%=      5-min Rain = 0
KTA1 101720Z 18002KT 26/20 A3025 RMK A01 T02610197  RH  068%=      5-min Rain = 0
KTA1 101721Z 19004KT 26/20 A3025 RMK A01 T02610198  RH  068%=      5-min Rain = 0
KTA1 101722Z 19003KT 26/20 A3025 RMK A01 T02610197  RH  068%=      5-min Rain = 0
KTA1 101723Z 19002KT 26/20 A3025 RMK A01 T02610197  RH  068%=      5-min Rain = 0
KTA1 101724Z 20001KT 26/20 A3025 RMK A01 T02600196  RH  067%=      5-min Rain = 0
KTA1 101725Z 20003KT 26/20 A3025 RMK A01 T02610195  RH  067%=      5-min Rain = 0
KTA1 101726Z 20002KT 26/20 A3025 RMK A01 T02620197  RH  067%=      5-min Rain = 0
KTA1 101727Z 20003KT 26/20 A3025 RMK A01 T02620196  RH  067%=      5-min Rain = 0
KTA1 101728Z 19004KT 26/20 A3025 RMK A01 T02620197  RH  067%=      5-min Rain = 0
KTA1 101729Z 21002KT 26/20 A3025 RMK A01 T02620195  RH  067%=      5-min Rain = 0
KTA1 101730Z 19000KT 26/20 A3024 RMK A01 T02610195  RH  067%=      5-min Rain = 0
KTA1 101731Z 10002KT 26/20 A3024 RMK A01 T02620197  RH  067%=      5-min Rain = 0
KTA1 101732Z 14003KT 26/20 A3024 RMK A01 T02640199  RH  067%=      5-min Rain = 0
KTA1 101733Z 13003KT 27/20 A3024 RMK A01 T02670201  RH  067%=      5-min Rain = 0
KTA1 101734Z 14003KT 27/20 A3024 RMK A01 T02680201  RH  067%=      5-min Rain = 0
KTA1 101735Z 12004KT 27/20 A3024 RMK A01 T02680200  RH  066%=      5-min Rain = 0
KTA1 101736Z 12004KT 27/20 A3024 RMK A01 T02680199  RH  066%=      5-min Rain = 0
KTA1 101737Z 13003KT 27/20 A3024 RMK A01 T02670199  RH  066%=      5-min Rain = 0
KTA1 101738Z 12004KT 27/20 A3024 RMK A01 T02670199  RH  066%=      5-min Rain = 0
KTA1 101739Z 09002KT 27/20 A3024 RMK A01 T02670197  RH  065%=      5-min Rain = 0
KTA1 101740Z 07004KT 27/20 A3024 RMK A01 T02670199  RH  066%=      5-min Rain = 0
KTA1 101741Z 08003KT 27/20 A3024 RMK A01 T02670197  RH  065%=      5-min Rain = 0
KTA1 101742Z 10004KT 27/20 A3024 RMK A01 T02670199  RH  066%=      5-min Rain = 0
KTA1 101743Z 11004KT 27/20 A3024 RMK A01 T02670199  RH  066%=      5-min Rain = 0
KTA1 101744Z 09003KT 27/20 A3024 RMK A01 T02690197  RH  065%=      5-min Rain = 0
KTA1 101745Z 11004KT 27/20 A3024 RMK A01 T02690196  RH  064%=      5-min Rain = 0
KTA1 101746Z 12004KT 27/19 A3024 RMK A01 T02690193  RH  063%=      5-min Rain = 0
KTA1 101747Z 12004KT 27/19 A3024 RMK A01 T02690192  RH  063%=      5-min Rain = 0
KTA1 101748Z 18004KT 27/20 A3024 RMK A01 T02700195  RH  064%=      5-min Rain = 0
KTA1 101749Z 18005KT 27/19 A3024 RMK A01 T02710194  RH  063%=      5-min Rain = 0
KTA1 101750Z 17003KT 27/20 A3024 RMK A01 T02720195  RH  063%=      5-min Rain = 0
KTA1 101751Z 19003KT 27/19 A3024 RMK A01 T02710193  RH  062%=      5-min Rain = 0
KTA1 101752Z 19002KT 27/19 A3023 RMK A01 T02710193  RH  062%=      5-min Rain = 0
KTA1 101753Z 15003KT 27/19 A3023 RMK A01 T02710193  RH  062%=      5-min Rain = 0
KTA1 101754Z 16004KT 27/20 A3023 RMK A01 T02730196  RH  063%=      5-min Rain = 0
KTA1 101755Z 15004KT 28/20 A3023 RMK A01 T02760196  RH  062%=      5-min Rain = 0
KTA1 101756Z 16004KT 28/20 A3023 RMK A01 T02770195  RH  061%=      5-min Rain = 0
KTA1 101757Z 18004KT 28/20 A3023 RMK A01 T02760195  RH  061%=      5-min Rain = 0
KTA1 101758Z 17004KT 28/20 A3023 RMK A01 T02760195  RH  061%=      5-min Rain = 0
KTA1 101759Z 18003KT 28/19 A3023 RMK A01 T02760194  RH  061%=      5-min Rain = 0
KTA1 101800Z 18003KT 28/19 A3023 RMK A01 T02760194  RH  061%=      5-min Rain = 0
KTA1 101801Z 14003KT 28/19 A3023 RMK A01 T02770194  RH  061%=      5-min Rain = 0
KTA1 101802Z 12005KT 28/20 A3023 RMK A01 T02780195  RH  060%=      5-min Rain = 0
KTA1 101803Z 12003KT 28/19 A3023 RMK A01 T02790194  RH  060%=      5-min Rain = 0
KTA1 101804Z 10004KT 28/20 A3023 RMK A01 T02790195  RH  060%=      5-min Rain = 0
KTA1 101805Z 11005KT 28/19 A3023 RMK A01 T02770192  RH  060%=      5-min Rain = 0
KTA1 101806Z 11003KT 28/19 A3023 RMK A01 T02750191  RH  060%=      5-min Rain = 0
KTA1 101807Z 16003KT 27/19 A3023 RMK A01 T02720192  RH  061%=      5-min Rain = 0
KTA1 101808Z 18003KT 27/19 A3022 RMK A01 T02730192  RH  061%=      5-min Rain = 0
KTA1 101809Z 19001KT 27/19 A3022 RMK A01 T02730191  RH  061%=      5-min Rain = 0
KTA1 101810Z 16001KT 27/19 A3022 RMK A01 T02740192  RH  061%=      5-min Rain = 0
KTA1 101811Z 10001KT 28/20 A3022 RMK A01 T02770196  RH  061%=      5-min Rain = 0
KTA1 101812Z 12000KT 28/20 A3022 RMK A01 T02790195  RH  060%=      5-min Rain = 0
KTA1 101813Z 00000KT 28/20 A3022 RMK A01 T02800195  RH  060%=      5-min Rain = 0
KTA1 101814Z 15001KT 28/20 A3022 RMK A01 T02810195  RH  060%=      5-min Rain = 0
KTA1 101815Z 14006KT 28/19 A3022 RMK A01 T02820192  RH  058%=      5-min Rain = 0
KTA1 101816Z 14004KT 28/19 A3022 RMK A01 T02820193  RH  058%=      5-min Rain = 0
KTA1 101817Z 15004KT 28/19 A3022 RMK A01 T02810194  RH  059%=      5-min Rain = 0
KTA1 101818Z 14004KT 28/19 A3022 RMK A01 T02810193  RH  059%=      5-min Rain = 0
KTA1 101819Z 16004KT 28/19 A3022 RMK A01 T02820193  RH  058%=      5-min Rain = 0
KTA1 101820Z 19004KT 28/19 A3022 RMK A01 T02820192  RH  058%=      5-min Rain = 0
KTA1 101821Z 20004KT 28/19 A3022 RMK A01 T02800192  RH  059%=      5-min Rain = 0
KTA1 101822Z 22004KT 28/19 A3022 RMK A01 T02760191  RH  060%=      5-min Rain = 0
KTA1 101823Z 23003KT 27/19 A3022 RMK A01 T02730189  RH  060%=      5-min Rain = 0
KTA1 101824Z 23002KT 27/19 A3022 RMK A01 T02710191  RH  061%=      5-min Rain = 0
KTA1 101825Z 23002KT 27/19 A3022 RMK A01 T02710191  RH  061%=      5-min Rain = 0
KTA1 101826Z 18002KT 27/19 A3022 RMK A01 T02720190  RH  061%=      5-min Rain = 0
KTA1 101827Z 13002KT 27/19 A3022 RMK A01 T02740189  RH  060%=      5-min Rain = 0
KTA1 101828Z 11001KT 28/19 A3022 RMK A01 T02760190  RH  059%=      5-min Rain = 0
KTA1 101829Z 08001KT 28/19 A3022 RMK A01 T02780190  RH  059%=      5-min Rain = 0
KTA1 101830Z 11001KT 28/19 A3022 RMK A01 T02790193  RH  059%=      5-min Rain = 0
KTA1 101831Z 11002KT 28/19 A3021 RMK A01 T02800191  RH  058%=      5-min Rain = 0
KTA1 101832Z 11002KT 28/19 A3021 RMK A01 T02790191  RH  059%=      5-min Rain = 0
KTA1 101833Z 12002KT 28/19 A3021 RMK A01 T02800191  RH  058%=      5-min Rain = 0
KTA1 101834Z 11003KT 28/19 A3021 RMK A01 T02820193  RH  058%=      5-min Rain = 0
KTA1 101835Z 11004KT 28/19 A3021 RMK A01 T02840190  RH  057%=      5-min Rain = 0
KTA1 101836Z 11004KT 28/19 A3021 RMK A01 T02840192  RH  057%=      5-min Rain = 0
KTA1 101837Z 12003KT 29/19 A3021 RMK A01 T02850192  RH  057%=      5-min Rain = 0
KTA1 101838Z 12002KT 29/19 A3021 RMK A01 T02850191  RH  057%=      5-min Rain = 0
KTA1 101839Z 11001KT 28/19 A3021 RMK A01 T02840190  RH  057%=      5-min Rain = 0
KTA1 101840Z 14001KT 28/19 A3021 RMK A01 T02840190  RH  057%=      5-min Rain = 0
KTA1 101841Z 16003KT 29/19 A3021 RMK A01 T02860190  RH  056%=      5-min Rain = 0
KTA1 101842Z 19005KT 29/19 A3021 RMK A01 T02900186  RH  053%=      5-min Rain = 0
KTA1 101843Z 16006G11KT 29/19 A3021 RMK A01 T02930188  RH  053%=      5-min Rain = 0
KTA1 101844Z 16009KT 29/19 A3021 RMK A01 T02930186  RH  052%=      5-min Rain = 0
KTA1 101845Z 15008KT 29/19 A302 RMK A01 T02910185  RH  053%=      5-min Rain = 0
KTA1 101846Z 15007KT 29/19 A302 RMK A01 T02890185  RH  053%=      5-min Rain = 0
KTA1 101847Z 14006KT 29/19 A302 RMK A01 T02870186  RH  054%=      5-min Rain = 0
KTA1 101848Z 14006KT 29/18 A302 RMK A01 T02870183  RH  053%=      5-min Rain = 0
KTA1 101849Z 13005KT 29/18 A302 RMK A01 T02870183  RH  053%=      5-min Rain = 0
KTA1 101850Z 13007KT 29/19 A302 RMK A01 T02880188  RH  055%=      5-min Rain = 0
KTA1 101851Z 11005KT 29/19 A302 RMK A01 T02910185  RH  053%=      5-min Rain = 0
KTA1 101852Z 12006KT 29/19 A302 RMK A01 T02900185  RH  053%=      5-min Rain = 0
KTA1 101853Z 14004KT 29/18 A302 RMK A01 T02880183  RH  053%=      5-min Rain = 0
KTA1 101854Z 09005KT 29/19 A302 RMK A01 T02890187  RH  054%=      5-min Rain = 0
KTA1 101855Z 11009KT 29/19 A302 RMK A01 T02930191  RH  054%=      5-min Rain = 0
KTA1 101856Z 12010KT 30/19 A302 RMK A01 T02970191  RH  053%=      5-min Rain = 0
KTA1 101857Z 11009KT 30/18 A302 RMK A01 T02980183  RH  050%=      5-min Rain = 0
KTA1 101858Z 14006KT 30/18 A302 RMK A01 T02960182  RH  050%=      5-min Rain = 0
KTA1 101859Z 18008KT 29/18 A302 RMK A01 T02940183  RH  051%=      5-min Rain = 0
KTA1 101900Z 18006KT 29/18 A302 RMK A01 T02940180  RH  050%=      5-min Rain = 0
KTA1 101901Z 17007KT 30/18 A302 RMK A01 T02950183  RH  051%=      5-min Rain = 0
KTA1 101902Z 16006KT 29/18 A302 RMK A01 T02940184  RH  052%=      5-min Rain = 0
KTA1 101903Z 17004KT 30/18 A302 RMK A01 T02950183  RH  051%=      5-min Rain = 0
KTA1 101904Z 11005KT 29/19 A302 RMK A01 T02940185  RH  052%=      5-min Rain = 0
KTA1 101905Z 12008KT 29/19 A302 RMK A01 T02940185  RH  052%=      5-min Rain = 0
KTA1 101906Z 12009KT 30/18 A302 RMK A01 T02950182  RH  050%=      5-min Rain = 0
KTA1 101907Z 13010KT 30/18 A302 RMK A01 T02960183  RH  051%=      5-min Rain = 0
KTA1 101908Z 13013KT 30/18 A302 RMK A01 T02980178  RH  049%=      5-min Rain = 0
KTA1 101909Z 14010KT 30/17 A302 RMK A01 T02970173  RH  047%=      5-min Rain = 0
KTA1 101910Z 14009KT 30/18 A302 RMK A01 T02950176  RH  049%=      5-min Rain = 0
KTA1 101911Z 15007KT 29/17 A302 RMK A01 T02920174  RH  049%=      5-min Rain = 0
KTA1 101912Z 12008KT 29/18 A302 RMK A01 T02920175  RH  049%=      5-min Rain = 0
KTA1 101913Z 11008KT 29/18 A302 RMK A01 T02920176  RH  050%=      5-min Rain = 0
KTA1 101914Z 11009KT 29/18 A3019 RMK A01 T02930178  RH  050%=      5-min Rain = 0
KTA1 101915Z 11007KT 29/18 A3019 RMK A01 T02940180  RH  050%=      5-min Rain = 0
KTA1 101916Z 12006KT 29/18 A3019 RMK A01 T02930180  RH  050%=      5-min Rain = 0
KTA1 101917Z 12004KT 29/18 A3019 RMK A01 T02920180  RH  051%=      5-min Rain = 0
KTA1 101918Z 13008KT 29/18 A3019 RMK A01 T02920180  RH  051%=      5-min Rain = 0
KTA1 101919Z 13007KT 29/18 A3019 RMK A01 T02920178  RH  050%=      5-min Rain = 0
KTA1 101920Z 16007KT 30/18 A3019 RMK A01 T02950181  RH  050%=      5-min Rain = 0
KTA1 101921Z 16011KT 30/18 A3019 RMK A01 T02980184  RH  050%=      5-min Rain = 0
KTA1 101922Z 17008KT 30/18 A3019 RMK A01 T02990183  RH  050%=      5-min Rain = 0
KTA1 101923Z 16007KT 30/18 A3019 RMK A01 T02980182  RH  050%=      5-min Rain = 0
KTA1 101924Z 16006KT 30/18 A3019 RMK A01 T02960181  RH  050%=      5-min Rain = 0
KTA1 101925Z 16007KT 30/18 A3019 RMK A01 T02960184  RH  051%=      5-min Rain = 0
KTA1 101926Z 14009KT 30/18 A3019 RMK A01 T02990184  RH  050%=      5-min Rain = 0
KTA1 101927Z 13009KT 30/18 A3019 RMK A01 T03020183  RH  049%=      5-min Rain = 0
KTA1 101928Z 13009KT 30/18 A3019 RMK A01 T03020183  RH  049%=      5-min Rain = 0
KTA1 101929Z 12009KT 30/18 A3018 RMK A01 T03000184  RH  050%=      5-min Rain = 0
KTA1 101930Z 12008KT 30/18 A3018 RMK A01 T02990182  RH  049%=      5-min Rain = 0
KTA1 101931Z 12007KT 30/18 A3018 RMK A01 T02980183  RH  050%=      5-min Rain = 0
KTA1 101932Z 14009KT 30/18 A3018 RMK A01 T02980184  RH  050%=      5-min Rain = 0
KTA1 101933Z 15010KT 30/18 A3018 RMK A01 T03000183  RH  050%=      5-min Rain = 0
KTA1 101934Z 16006KT 30/18 A3018 RMK A01 T03010184  RH  050%=      5-min Rain = 0
KTA1 101935Z 15008KT 30/18 A3018 RMK A01 T03020182  RH  049%=      5-min Rain = 0
KTA1 101936Z 19008KT 30/18 A3018 RMK A01 T03000181  RH  049%=      5-min Rain = 0
KTA1 101937Z 17006KT 30/18 A3018 RMK A01 T02970177  RH  048%=      5-min Rain = 0
KTA1 101938Z 17006KT 30/18 A3018 RMK A01 T02960178  RH  049%=      5-min Rain = 0
KTA1 101939Z 16005KT 30/18 A3018 RMK A01 T02970181  RH  050%=      5-min Rain = 0
KTA1 101940Z 16006KT 30/18 A3018 RMK A01 T02990177  RH  048%=      5-min Rain = 0
KTA1 101941Z 13009KT 30/18 A3018 RMK A01 T03000181  RH  049%=      5-min Rain = 0
KTA1 101942Z 12011KT 31/18 A3018 RMK A01 T03050181  RH  047%=      5-min Rain = 0
KTA1 101943Z 13014KT 31/18 A3018 RMK A01 T03060178  RH  046%=      5-min Rain = 0
KTA1 101944Z 13010KT 30/18 A3018 RMK A01 T03040176  RH  046%=      5-min Rain = 0
KTA1 101945Z 12009KT 30/18 A3018 RMK A01 T03010176  RH  047%=      5-min Rain = 0
KTA1 101946Z 13006KT 30/18 A3017 RMK A01 T03000177  RH  048%=      5-min Rain = 0
KTA1 101947Z 14006KT 30/18 A3017 RMK A01 T03020179  RH  048%=      5-min Rain = 0
KTA1 101948Z 14006G11KT 30/18 A3017 RMK A01 T03030181  RH  048%=      5-min Rain = 0
KTA1 101949Z 15008KT 31/18 A3017 RMK A01 T03050183  RH  048%=      5-min Rain = 0
KTA1 101950Z 15005KT 31/18 A3017 RMK A01 T03060180  RH  047%=      5-min Rain = 0
KTA1 101951Z 13007KT 31/18 A3017 RMK A01 T03050179  RH  047%=      5-min Rain = 0
KTA1 101952Z 13009KT 30/18 A3017 RMK A01 T03030178  RH  047%=      5-min Rain = 0
KTA1 101953Z 13009KT 30/18 A3017 RMK A01 T03020180  RH  048%=      5-min Rain = 0
KTA1 101954Z 14011KT 31/18 A3017 RMK A01 T03050182  RH  048%=      5-min Rain = 0
KTA1 101955Z 13012KT 31/18 A3017 RMK A01 T03090175  RH  044%=      5-min Rain = 0
KTA1 101956Z 13010KT 31/17 A3017 RMK A01 T03100172  RH  044%=      5-min Rain = 0
KTA1 101957Z 12009KT 31/17 A3017 RMK A01 T03080173  RH  044%=      5-min Rain = 0
KTA1 101958Z 11008KT 31/17 A3017 RMK A01 T03050170  RH  044%=      5-min Rain = 0
KTA1 101959Z 13009KT 30/17 A3017 RMK A01 T03020170  RH  045%=      5-min Rain = 0
KTA1 102000Z 14009KT 30/17 A3017 RMK A01 T03010170  RH  045%=      5-min Rain = 0
KTA1 102001Z 13009KT 30/17 A3017 RMK A01 T03000171  RH  046%=      5-min Rain = 0
KTA1 102002Z 13008KT 30/17 A3017 RMK A01 T03000172  RH  046%=      5-min Rain = 0
KTA1 102003Z 16007KT 30/17 A3017 RMK A01 T03000173  RH  047%=      5-min Rain = 0
KTA1 102004Z 17008KT 30/17 A3017 RMK A01 T03000173  RH  046%=      5-min Rain = 0
KTA1 102005Z 17010KT 30/17 A3016 RMK A01 T03000172  RH  046%=      5-min Rain = 0
KTA1 102006Z 14011KT 30/17 A3016 RMK A01 T02990173  RH  047%=      5-min Rain = 0
KTA1 102007Z 14011KT 30/17 A3016 RMK A01 T03000172  RH  046%=      5-min Rain = 0
KTA1 102008Z 13010KT 30/17 A3016 RMK A01 T03030174  RH  046%=      5-min Rain = 0
KTA1 102009Z 13011KT 31/17 A3016 RMK A01 T03080171  RH  044%=      5-min Rain = 0
KTA1 102010Z 14009KT 31/17 A3016 RMK A01 T03090169  RH  043%=      5-min Rain = 0
KTA1 102011Z 14006KT 31/17 A3016 RMK A01 T03100174  RH  044%=      5-min Rain = 0
KTA1 102012Z 15007KT 31/18 A3016 RMK A01 T03120176  RH  044%=      5-min Rain = 0
KTA1 102013Z 17007KT 31/17 A3016 RMK A01 T03140168  RH  041%=      5-min Rain = 0
KTA1 102014Z 16012KT 31/17 A3016 RMK A01 T03140167  RH  041%=      5-min Rain = 0
KTA1 102015Z 16013KT 31/17 A3016 RMK A01 T03140167  RH  041%=      5-min Rain = 0
KTA1 102016Z 16010KT 31/17 A3016 RMK A01 T03130171  RH  043%=      5-min Rain = 0
KTA1 102017Z 18009KT 31/17 A3016 RMK A01 T03110171  RH  043%=      5-min Rain = 0
KTA1 102018Z 17005KT 31/17 A3016 RMK A01 T03080170  RH  043%=      5-min Rain = 0
KTA1 102019Z 17007KT 31/17 A3016 RMK A01 T03070171  RH  044%=      5-min Rain = 0
KTA1 102020Z 17008KT 31/17 A3016 RMK A01 T03080169  RH  043%=      5-min Rain = 0
KTA1 102021Z 15010KT 31/17 A3016 RMK A01 T03090174  RH  044%=      5-min Rain = 0
KTA1 102022Z 15009KT 31/17 A3016 RMK A01 T03110169  RH  043%=      5-min Rain = 0
KTA1 102023Z 16008KT 31/17 A3016 RMK A01 T03130172  RH  043%=      5-min Rain = 0
KTA1 102024Z 15008KT 31/17 A3016 RMK A01 T03140174  RH  043%=      5-min Rain = 0
KTA1 102025Z 16004KT 31/17 A3016 RMK A01 T03140174  RH  043%=      5-min Rain = 0
KTA1 102026Z 18003KT 32/17 A3016 RMK A01 T03150171  RH  042%=      5-min Rain = 0
KTA1 102027Z 16008G13KT 32/17 A3016 RMK A01 T03160172  RH  042%=      5-min Rain = 0
KTA1 102028Z 14013KT 32/18 A3016 RMK A01 T03160176  RH  043%=      5-min Rain = 0
KTA1 102029Z 14009KT 32/18 A3016 RMK A01 T03160175  RH  043%=      5-min Rain = 0
KTA1 102030Z 14010KT 32/18 A3016 RMK A01 T03170176  RH  043%=      5-min Rain = 0
KTA1 102031Z 14009KT 32/18 A3016 RMK A01 T03170176  RH  043%=      5-min Rain = 0
KTA1 102032Z 14008KT 32/18 A3016 RMK A01 T03170176  RH  043%=      5-min Rain = 0
KTA1 102033Z 13007KT 32/18 A3015 RMK A01 T03170176  RH  043%=      5-min Rain = 0
KTA1 102034Z 11010KT 32/18 A3015 RMK A01 T03170180  RH  044%=      5-min Rain = 0
KTA1 102035Z 13010KT 31/18 A3015 RMK A01 T03140179  RH  045%=      5-min Rain = 0
KTA1 102036Z 14011KT 31/18 A3015 RMK A01 T03110178  RH  045%=      5-min Rain = 0
KTA1 102037Z 13011KT 31/18 A3015 RMK A01 T03100177  RH  045%=      5-min Rain = 0
KTA1 102038Z 13007KT 31/18 A3015 RMK A01 T03100176  RH  045%=      5-min Rain = 0
KTA1 102039Z 13008KT 31/18 A3015 RMK A01 T03110176  RH  044%=      5-min Rain = 0
KTA1 102040Z 14008KT 31/18 A3015 RMK A01 T03140176  RH  044%=      5-min Rain = 0
KTA1 102041Z 14008KT 31/18 A3015 RMK A01 T03140178  RH  044%=      5-min Rain = 0
KTA1 102042Z 13011G16KT 32/18 A3015 RMK A01 T03150178  RH  044%=      5-min Rain = 0
KTA1 102043Z 14010KT 31/18 A3015 RMK A01 T03130178  RH  044%=      5-min Rain = 0
KTA1 102044Z 13009KT 31/18 A3015 RMK A01 T03110177  RH  045%=      5-min Rain = 0
KTA1 102045Z 13010KT 31/18 A3015 RMK A01 T03090176  RH  045%=      5-min Rain = 0
KTA1 102046Z 12012KT 31/18 A3015 RMK A01 T03070175  RH  045%=      5-min Rain = 0
KTA1 102047Z 13010KT 31/17 A3015 RMK A01 T03060174  RH  045%=      5-min Rain = 0
KTA1 102048Z 13009KT 31/17 A3015 RMK A01 T03070169  RH  044%=      5-min Rain = 0
KTA1 102049Z 12009KT 31/17 A3015 RMK A01 T03080169  RH  043%=      5-min Rain = 0
KTA1 102050Z 12011G17KT 31/17 A3015 RMK A01 T03100170  RH  043%=      5-min Rain = 0
KTA1 102051Z 13012KT 31/17 A3015 RMK A01 T03120167  RH  042%=      5-min Rain = 0
KTA1 102052Z 14010KT 32/17 A3015 RMK A01 T03150170  RH  042%=      5-min Rain = 0
KTA1 102053Z 16010KT 32/18 A3015 RMK A01 T03170175  RH  043%=      5-min Rain = 0
KTA1 102054Z 16008KT 32/18 A3015 RMK A01 T03200178  RH  043%=      5-min Rain = 0
KTA1 102055Z 17012G17KT 32/18 A3015 RMK A01 T03220177  RH  042%=      5-min Rain = 0
KTA1 102056Z 17014KT 32/17 A3015 RMK A01 T03210174  RH  041%=      5-min Rain = 0
KTA1 102057Z 17010KT 32/17 A3014 RMK A01 T03190172  RH  042%=      5-min Rain = 0
KTA1 102058Z 16007KT 32/17 A3014 RMK A01 T03170174  RH  042%=      5-min Rain = 0
KTA1 102059Z 15012KT 32/18 A3014 RMK A01 T03170178  RH  044%=      5-min Rain = 0
KTA1 102100Z 14009KT 32/17 A3014 RMK A01 T03180172  RH  042%=      5-min Rain = 0
KTA1 102101Z 15013KT 32/18 A3014 RMK A01 T03170177  RH  043%=      5-min Rain = 0
KTA1 102102Z 14011KT 32/17 A3014 RMK A01 T03190173  RH  042%=      5-min Rain = 0
KTA1 102103Z 13010KT 32/17 A3014 RMK A01 T03210167  RH  040%=      5-min Rain = 0
KTA1 102104Z 13013KT 32/17 A3014 RMK A01 T03220166  RH  039%=      5-min Rain = 0
KTA1 102105Z 13011KT 32/17 A3014 RMK A01 T03210165  RH  039%=      5-min Rain = 0
KTA1 102106Z 14008KT 32/17 A3014 RMK A01 T03180166  RH  040%=      5-min Rain = 0
KTA1 102107Z 16011KT 32/17 A3014 RMK A01 T03170170  RH  041%=      5-min Rain = 0
KTA1 102108Z 16011KT 32/17 A3014 RMK A01 T03150173  RH  043%=      5-min Rain = 0
KTA1 102109Z 16009KT 31/17 A3014 RMK A01 T03130174  RH  043%=      5-min Rain = 0
KTA1 102110Z 16010KT 31/17 A3014 RMK A01 T03110174  RH  044%=      5-min Rain = 0
KTA1 102111Z 15008KT 31/17 A3014 RMK A01 T03080172  RH  044%=      5-min Rain = 0
KTA1 102112Z 15009KT 31/17 A3014 RMK A01 T03060171  RH  044%=      5-min Rain = 0
KTA1 102113Z 17008KT 31/17 A3014 RMK A01 T03050171  RH  045%=      5-min Rain = 0
KTA1 102114Z 17007KT 30/17 A3014 RMK A01 T03040170  RH  045%=      5-min Rain = 0
KTA1 102115Z 17007KT 30/17 A3014 RMK A01 T03030170  RH  045%=      5-min Rain = 0
KTA1 102116Z 17008KT 30/17 A3014 RMK A01 T03030168  RH  044%=      5-min Rain = 0
KTA1 102117Z 16006KT 30/17 A3014 RMK A01 T03020170  RH  045%=      5-min Rain = 0
KTA1 102118Z 16006KT 30/17 A3014 RMK A01 T03020171  RH  045%=      5-min Rain = 0
KTA1 102119Z 17005KT 30/17 A3013 RMK A01 T03020170  RH  045%=      5-min Rain = 0
KTA1 102120Z 16007KT 30/17 A3013 RMK A01 T03030172  RH  045%=      5-min Rain = 0
KTA1 102121Z 16009KT 30/17 A3013 RMK A01 T03030170  RH  045%=      5-min Rain = 0
KTA1 102122Z 16007KT 30/17 A3013 RMK A01 T03030167  RH  044%=      5-min Rain = 0
KTA1 102123Z 16005KT 30/17 A3013 RMK A01 T03010167  RH  044%=      5-min Rain = 0
KTA1 102124Z 17007KT 30/17 A3013 RMK A01 T03010168  RH  045%=      5-min Rain = 0
KTA1 102125Z 16007KT 30/17 A3013 RMK A01 T03010166  RH  044%=      5-min Rain = 0
KTA1 102126Z 15007KT 30/17 A3013 RMK A01 T03010167  RH  045%=      5-min Rain = 0
KTA1 102127Z 14007KT 30/17 A3013 RMK A01 T03010168  RH  045%=      5-min Rain = 0
KTA1 102128Z 15007KT 30/17 A3013 RMK A01 T03020167  RH  044%=      5-min Rain = 0
KTA1 102129Z 15010KT 30/17 A3013 RMK A01 T03020166  RH  044%=      5-min Rain = 0
KTA1 102130Z 15008KT 30/17 A3013 RMK A01 T03020166  RH  044%=      5-min Rain = 0
KTA1 102131Z 14012KT 30/17 A3013 RMK A01 T03030167  RH  044%=      5-min Rain = 0
KTA1 102132Z 15012KT 30/17 A3013 RMK A01 T03040168  RH  044%=      5-min Rain = 0
KTA1 102133Z 14011KT 30/17 A3013 RMK A01 T03040168  RH  044%=      5-min Rain = 0
KTA1 102134Z 15010KT 30/17 A3013 RMK A01 T03040168  RH  044%=      5-min Rain = 0
KTA1 102135Z 17010KT 30/17 A3013 RMK A01 T03040170  RH  044%=      5-min Rain = 0
KTA1 102136Z 17010KT 30/17 A3013 RMK A01 T03040167  RH  044%=      5-min Rain = 0
KTA1 102137Z 16008KT 30/17 A3013 RMK A01 T03040171  RH  045%=      5-min Rain = 0
KTA1 102138Z 16008KT 30/17 A3013 RMK A01 T03040173  RH  045%=      5-min Rain = 0
KTA1 102139Z 17008KT 31/17 A3013 RMK A01 T03050172  RH  045%=      5-min Rain = 0
KTA1 102140Z 16008KT 31/17 A3013 RMK A01 T03050170  RH  044%=      5-min Rain = 0
KTA1 102141Z 16010KT 31/17 A3013 RMK A01 T03060171  RH  045%=      5-min Rain = 0
KTA1 102142Z 17010KT 31/17 A3013 RMK A01 T03050170  RH  044%=      5-min Rain = 0
KTA1 102143Z 17011KT 31/17 A3013 RMK A01 T03050170  RH  044%=      5-min Rain = 0
KTA1 102144Z 16011KT 31/17 A3013 RMK A01 T03050170  RH  044%=      5-min Rain = 0
KTA1 102145Z 16007KT 31/17 A3013 RMK A01 T03050170  RH  044%=      5-min Rain = 0
KTA1 102146Z 16008KT 31/17 A3013 RMK A01 T03060171  RH  045%=      5-min Rain = 0
KTA1 102147Z 16010KT 31/17 A3013 RMK A01 T03060170  RH  044%=      5-min Rain = 0
KTA1 102148Z 17009KT 31/17 A3013 RMK A01 T03060169  RH  044%=      5-min Rain = 0
KTA1 102149Z 17010KT 31/17 A3013 RMK A01 T03060169  RH  044%=      5-min Rain = 0
KTA1 102150Z 17009KT 31/17 A3013 RMK A01 T03050169  RH  044%=      5-min Rain = 0
KTA1 102151Z 17007KT 31/17 A3013 RMK A01 T03050169  RH  044%=      5-min Rain = 0
KTA1 102152Z 14009KT 30/17 A3013 RMK A01 T03040172  RH  045%=      5-min Rain = 0
KTA1 102153Z 16011KT 31/17 A3013 RMK A01 T03050172  RH  045%=      5-min Rain = 0
KTA1 102154Z 16008KT 31/17 A3013 RMK A01 T03050172  RH  045%=      5-min Rain = 0
KTA1 102155Z 15010KT 31/17 A3013 RMK A01 T03050171  RH  045%=      5-min Rain = 0
KTA1 102156Z 15013KT 31/17 A3013 RMK A01 T03050167  RH  044%=      5-min Rain = 0
KTA1 102157Z 15011KT 31/17 A3013 RMK A01 T03050167  RH  043%=      5-min Rain = 0
KTA1 102158Z 16011KT 31/17 A3013 RMK A01 T03060170  RH  044%=      5-min Rain = 0
KTA1 102159Z 14011KT 31/17 A3013 RMK A01 T03100170  RH  043%=      5-min Rain = 0
KTA1 102200Z 15009KT 31/17 A3013 RMK A01 T03110170  RH  043%=      5-min Rain = 0
KTA1 102201Z 16009KT 31/17 A3013 RMK A01 T03130170  RH  042%=      5-min Rain = 0
KTA1 102202Z 18009KT 31/17 A3013 RMK A01 T03140169  RH  042%=      5-min Rain = 0
KTA1 102203Z 17007KT 31/17 A3012 RMK A01 T03140168  RH  042%=      5-min Rain = 0
KTA1 102204Z 15007KT 31/17 A3012 RMK A01 T03140170  RH  042%=      5-min Rain = 0
KTA1 102205Z 15009KT 31/17 A3012 RMK A01 T03130172  RH  043%=      5-min Rain = 0
KTA1 102206Z 15009KT 31/17 A3012 RMK A01 T03140171  RH  042%=      5-min Rain = 0
KTA1 102207Z 16008KT 31/17 A3012 RMK A01 T03140172  RH  042%=      5-min Rain = 0
KTA1 102208Z 14013KT 32/18 A3012 RMK A01 T03170175  RH  043%=      5-min Rain = 0
KTA1 102209Z 14011KT 32/17 A3012 RMK A01 T03180171  RH  042%=      5-min Rain = 0
KTA1 102210Z 14010KT 32/17 A3012 RMK A01 T03180173  RH  042%=      5-min Rain = 0
KTA1 102211Z 13010KT 32/17 A3012 RMK A01 T03180171  RH  041%=      5-min Rain = 0
KTA1 102212Z 13009KT 32/17 A3012 RMK A01 T03150167  RH  041%=      5-min Rain = 0
KTA1 102213Z 14008KT 31/17 A3012 RMK A01 T03120168  RH  042%=      5-min Rain = 0
KTA1 102214Z 14009KT 31/17 A3012 RMK A01 T03110168  RH  042%=      5-min Rain = 0
KTA1 102215Z 12011KT 31/17 A3012 RMK A01 T03110169  RH  043%=      5-min Rain = 0
KTA1 102216Z 13014KT 31/17 A3012 RMK A01 T03120168  RH  042%=      5-min Rain = 0
KTA1 102217Z 13014KT 31/17 A3012 RMK A01 T03120166  RH  041%=      5-min Rain = 0
KTA1 102218Z 13012KT 31/17 A3012 RMK A01 T03120166  RH  042%=      5-min Rain = 0
KTA1 102219Z 14011KT 31/17 A3012 RMK A01 T03120167  RH  042%=      5-min Rain = 0
KTA1 102220Z 14009KT 31/17 A3012 RMK A01 T03130165  RH  041%=      5-min Rain = 0
KTA1 102221Z 14011KT 31/17 A3012 RMK A01 T03140165  RH  041%=      5-min Rain = 0
KTA1 102222Z 15010KT 31/17 A3012 RMK A01 T03140166  RH  041%=      5-min Rain = 0
KTA1 102223Z 14010KT 32/17 A3012 RMK A01 T03150168  RH  041%=      5-min Rain = 0
KTA1 102224Z 13011KT 32/17 A3012 RMK A01 T03150167  RH  041%=      5-min Rain = 0
KTA1 102225Z 13010KT 32/17 A3012 RMK A01 T03160168  RH  041%=      5-min Rain = 0
KTA1 102226Z 14012KT 32/17 A3011 RMK A01 T03170168  RH  041%=      5-min Rain = 0
KTA1 102227Z 14008KT 32/17 A3011 RMK A01 T03180168  RH  041%=      5-min Rain = 0
KTA1 102228Z 13008KT 32/17 A3011 RMK A01 T03170169  RH  041%=      5-min Rain = 0
KTA1 102229Z 12011KT 32/17 A3011 RMK A01 T03190171  RH  041%=      5-min Rain = 0
KTA1 102230Z 12009KT 32/17 A3011 RMK A01 T03200167  RH  040%=      5-min Rain = 0
KTA1 102231Z 12008KT 32/17 A3011 RMK A01 T03190170  RH  041%=      5-min Rain = 0
KTA1 102232Z 14010KT 32/17 A3011 RMK A01 T03200169  RH  040%=      5-min Rain = 0
KTA1 102233Z 15012KT 32/17 A3011 RMK A01 T03210167  RH  040%=      5-min Rain = 0
KTA1 102234Z 14014KT 32/17 A3011 RMK A01 T03200167  RH  040%=      5-min Rain = 0
KTA1 102235Z 14012KT 32/17 A3011 RMK A01 T03190166  RH  040%=      5-min Rain = 0
KTA1 102236Z 15011KT 32/17 A3011 RMK A01 T03190165  RH  040%=      5-min Rain = 0
KTA1 102237Z 16011KT 32/17 A3011 RMK A01 T03180166  RH  040%=      5-min Rain = 0
KTA1 102238Z 14011KT 32/17 A3011 RMK A01 T03170165  RH  040%=      5-min Rain = 0
KTA1 102239Z 14010KT 32/16 A3011 RMK A01 T03170162  RH  039%=      5-min Rain = 0
KTA1 102240Z 15007KT 32/16 A3011 RMK A01 T03170161  RH  039%=      5-min Rain = 0
KTA1 102241Z 14006KT 32/17 A3011 RMK A01 T03170165  RH  040%=      5-min Rain = 0
KTA1 102242Z 15009KT 32/17 A3011 RMK A01 T03190165  RH  040%=      5-min Rain = 0
KTA1 102243Z 15008KT 32/16 A3011 RMK A01 T03190161  RH  039%=      5-min Rain = 0
KTA1 102244Z 14009KT 32/16 A3011 RMK A01 T03170163  RH  039%=      5-min Rain = 0
KTA1 102245Z 15011KT 32/16 A3011 RMK A01 T03190163  RH  039%=      5-min Rain = 0
KTA1 102246Z 14013KT 32/16 A3011 RMK A01 T03190160  RH  038%=      5-min Rain = 0
KTA1 102247Z 15010KT 32/16 A3011 RMK A01 T03190163  RH  039%=      5-min Rain = 0
KTA1 102248Z 15011KT 32/16 A3011 RMK A01 T03190161  RH  039%=      5-min Rain = 0
KTA1 102249Z 15009KT 32/16 A3011 RMK A01 T03190162  RH  039%=      5-min Rain = 0
KTA1 102250Z 14012KT 32/16 A301 RMK A01 T03180163  RH  039%=      5-min Rain = 0
KTA1 102251Z 15015KT 32/16 A301 RMK A01 T03190158  RH  038%=      5-min Rain = 0
KTA1 102252Z 15012KT 32/16 A301 RMK A01 T03180158  RH  038%=      5-min Rain = 0
KTA1 102253Z 14010KT 32/16 A301 RMK A01 T03170160  RH  039%=      5-min Rain = 0
KTA1 102254Z 15010KT 32/16 A301 RMK A01 T03160161  RH  039%=      5-min Rain = 0
KTA1 102255Z 17008KT 32/16 A301 RMK A01 T03160161  RH  039%=      5-min Rain = 0
KTA1 102256Z 15009KT 32/16 A301 RMK A01 T03170163  RH  040%=      5-min Rain = 0
KTA1 102257Z 15010KT 32/16 A301 RMK A01 T03180161  RH  039%=      5-min Rain = 0
KTA1 102258Z 16012KT 32/16 A301 RMK A01 T03180162  RH  039%=      5-min Rain = 0
KTA1 102259Z 17009KT 32/16 A301 RMK A01 T03180160  RH  039%=      5-min Rain = 0
KTA1 102300Z 16009KT 32/16 A301 RMK A01 T03180162  RH  039%=      5-min Rain = 0
KTA1 102301Z 17009KT 32/16 A301 RMK A01 T03190159  RH  038%=      5-min Rain = 0
KTA1 102302Z 16008KT 32/16 A301 RMK A01 T03170159  RH  039%=      5-min Rain = 0
KTA1 102303Z 16007KT 32/16 A301 RMK A01 T03160159  RH  039%=      5-min Rain = 0
KTA1 102304Z 18008KT 32/16 A301 RMK A01 T03150159  RH  039%=      5-min Rain = 0
KTA1 102305Z 17006KT 32/16 A301 RMK A01 T03150157  RH  038%=      5-min Rain = 0
KTA1 102306Z 18006KT 32/16 A301 RMK A01 T03170162  RH  039%=      5-min Rain = 0
KTA1 102307Z 17010KT 32/16 A301 RMK A01 T03210160  RH  038%=      5-min Rain = 0
KTA1 102308Z 18010KT 32/16 A301 RMK A01 T03220159  RH  038%=      5-min Rain = 0
KTA1 102309Z 16008KT 32/16 A301 RMK A01 T03210159  RH  038%=      5-min Rain = 0
KTA1 102310Z 17010KT 32/16 A301 RMK A01 T03210161  RH  038%=      5-min Rain = 0
KTA1 102311Z 16007G12KT 32/16 A301 RMK A01 T03210158  RH  037%=      5-min Rain = 0
KTA1 102312Z 14006KT 32/16 A3009 RMK A01 T03190157  RH  038%=      5-min Rain = 0
KTA1 102313Z 10010KT 32/16 A3009 RMK A01 T03160156  RH  038%=      5-min Rain = 0
KTA1 102314Z 11010KT 31/16 A301 RMK A01 T03140160  RH  039%=      5-min Rain = 0
KTA1 102315Z 13013KT 31/16 A301 RMK A01 T03130162  RH  040%=      5-min Rain = 0
KTA1 102316Z 13011KT 31/16 A301 RMK A01 T03140161  RH  040%=      5-min Rain = 0
KTA1 102317Z 12010KT 31/16 A301 RMK A01 T03140161  RH  040%=      5-min Rain = 0
KTA1 102318Z 12007KT 31/16 A301 RMK A01 T03140161  RH  040%=      5-min Rain = 0
KTA1 102319Z 11011KT 31/16 A301 RMK A01 T03140163  RH  040%=      5-min Rain = 0
KTA1 102320Z 13010KT 31/16 A3009 RMK A01 T03140162  RH  040%=      5-min Rain = 0
KTA1 102321Z 13010KT 31/16 A301 RMK A01 T03140160  RH  040%=      5-min Rain = 0
KTA1 102322Z 15008KT 31/16 A3009 RMK A01 T03120162  RH  040%=      5-min Rain = 0
KTA1 102323Z 16009KT 31/16 A3009 RMK A01 T03130156  RH  039%=      5-min Rain = 0
KTA1 102324Z 15011KT 31/15 A3009 RMK A01 T03130154  RH  038%=      5-min Rain = 0
KTA1 102325Z 15010KT 31/15 A3009 RMK A01 T03130152  RH  038%=      5-min Rain = 0
KTA1 102326Z 17010G15KT 31/16 A3009 RMK A01 T03120155  RH  039%=      5-min Rain = 0
KTA1 102327Z 17010KT 31/15 A3009 RMK A01 T03110152  RH  038%=      5-min Rain = 0
KTA1 102328Z 17011KT 31/15 A3009 RMK A01 T03120151  RH  038%=      5-min Rain = 0
KTA1 102329Z 16011KT 31/15 A3009 RMK A01 T03120151  RH  038%=      5-min Rain = 0
KTA1 102330Z 15011KT 31/15 A3009 RMK A01 T03120151  RH  038%=      5-min Rain = 0
KTA1 102331Z 15011KT 31/15 A3009 RMK A01 T03120150  RH  038%=      5-min Rain = 0
KTA1 102332Z 17011KT 31/15 A3009 RMK A01 T03120148  RH  037%=      5-min Rain = 0
KTA1 102333Z 17011KT 31/15 A3009 RMK A01 T03120145  RH  036%=      5-min Rain = 0
KTA1 102334Z 17010KT 31/15 A3009 RMK A01 T03130148  RH  037%=      5-min Rain = 0
KTA1 102335Z 17011KT 32/15 A3009 RMK A01 T03150149  RH  037%=      5-min Rain = 0
KTA1 102336Z 17012KT 32/15 A3009 RMK A01 T03160148  RH  036%=      5-min Rain = 0
KTA1 102337Z 16012KT 32/15 A3009 RMK A01 T03160150  RH  037%=      5-min Rain = 0
KTA1 102338Z 16011KT 32/15 A3009 RMK A01 T03160150  RH  037%=      5-min Rain = 0
KTA1 102339Z 16010KT 32/15 A3009 RMK A01 T03150151  RH  037%=      5-min Rain = 0
KTA1 102340Z 15009KT 31/15 A3008 RMK A01 T03140152  RH  038%=      5-min Rain = 0
KTA1 102341Z 15007KT 31/15 A3008 RMK A01 T03120152  RH  038%=      5-min Rain = 0
KTA1 102342Z 15010KT 31/15 A3008 RMK A01 T03110151  RH  038%=      5-min Rain = 0
KTA1 102343Z 16013KT 31/15 A3008 RMK A01 T03110153  RH  038%=      5-min Rain = 0
KTA1 102344Z 15013KT 31/15 A3008 RMK A01 T03100152  RH  038%=      5-min Rain = 0
KTA1 102345Z 17011KT 31/15 A3008 RMK A01 T03100151  RH  038%=      5-min Rain = 0
KTA1 102346Z 17008KT 31/15 A3008 RMK A01 T03110151  RH  038%=      5-min Rain = 0
KTA1 102347Z 17012KT 31/15 A3008 RMK A01 T03130152  RH  038%=      5-min Rain = 0
KTA1 102348Z 16014KT 31/15 A3008 RMK A01 T03140152  RH  038%=      5-min Rain = 0
KTA1 102349Z 16013KT 31/15 A3008 RMK A01 T03140152  RH  037%=      5-min Rain = 0
KTA1 102350Z 16012KT 31/15 A3008 RMK A01 T03130152  RH  038%=      5-min Rain = 0
KTA1 102351Z 16011KT 31/15 A3008 RMK A01 T03120151  RH  038%=      5-min Rain = 0
KTA1 102352Z 17012KT 31/15 A3008 RMK A01 T03110152  RH  038%=      5-min Rain = 0
KTA1 102353Z 16013KT 31/15 A3008 RMK A01 T03110154  RH  039%=      5-min Rain = 0
KTA1 102354Z 16010KT 31/16 A3008 RMK A01 T03110155  RH  039%=      5-min Rain = 0
KTA1 102355Z 15008KT 31/16 A3008 RMK A01 T03100155  RH  039%=      5-min Rain = 0
KTA1 102356Z 15012KT 31/16 A3008 RMK A01 T03100157  RH  040%=      5-min Rain = 0
KTA1 102357Z 15015KT 31/16 A3008 RMK A01 T03100160  RH  040%=      5-min Rain = 0
KTA1 102358Z 15014KT 31/16 A3008 RMK A01 T03090161  RH  041%=      5-min Rain = 0
KTA1 102359Z 16013G18KT 31/16 A3008 RMK A01 T03090162  RH  041%=      5-min Rain = 0
KTA1 110000Z 16014KT 31/16 A3008 RMK A01 T03080161  RH  041%=      5-min Rain = 0
KTA1 110001Z 15015KT 31/16 A3008 RMK A01 T03080160  RH  041%=      5-min Rain = 0
KTA1 110002Z 15015KT 31/16 A3008 RMK A01 T03070160  RH  041%=      5-min Rain = 0
KTA1 110003Z 16014KT 31/16 A3008 RMK A01 T03080160  RH  041%=      5-min Rain = 0
KTA1 110004Z 16012KT 31/16 A3008 RMK A01 T03070159  RH  041%=      5-min Rain = 0
KTA1 110005Z 16011KT 31/16 A3008 RMK A01 T03060158  RH  041%=      5-min Rain = 0
KTA1 110006Z 16010KT 31/16 A3008 RMK A01 T03070159  RH  041%=      5-min Rain = 0
KTA1 110007Z 16011KT 31/16 A3008 RMK A01 T03070159  RH  041%=      5-min Rain = 0
KTA1 110008Z 16010KT 31/16 A3008 RMK A01 T03060161  RH  041%=      5-min Rain = 0
KTA1 110009Z 16014KT 31/16 A3008 RMK A01 T03060159  RH  041%=      5-min Rain = 0
KTA1 110010Z 15013KT 31/16 A3008 RMK A01 T03060158  RH  041%=      5-min Rain = 0
KTA1 110011Z 15012KT 31/16 A3008 RMK A01 T03050159  RH  041%=      5-min Rain = 0
KTA1 110012Z 16011KT 31/16 A3008 RMK A01 T03050159  RH  041%=      5-min Rain = 0
KTA1 110013Z 16013KT 31/16 A3008 RMK A01 T03050159  RH  041%=      5-min Rain = 0
KTA1 110014Z 16013KT 31/16 A3008 RMK A01 T03050158  RH  041%=      5-min Rain = 0
KTA1 110015Z 16012KT 31/16 A3008 RMK A01 T03060157  RH  041%=      5-min Rain = 0
KTA1 110016Z 16013KT 31/16 A3008 RMK A01 T03070158  RH  041%=      5-min Rain = 0
KTA1 110017Z 17012KT 31/16 A3008 RMK A01 T03070158  RH  041%=      5-min Rain = 0
KTA1 110018Z 17013KT 31/16 A3008 RMK A01 T03060158  RH  041%=      5-min Rain = 0
KTA1 110019Z 17012KT 31/16 A3008 RMK A01 T03060158  RH  041%=      5-min Rain = 0
KTA1 110020Z 16011KT 31/16 A3008 RMK A01 T03050159  RH  041%=      5-min Rain = 0
KTA1 110021Z 16011KT 30/16 A3008 RMK A01 T03040160  RH  042%=      5-min Rain = 0
KTA1 110022Z 15011KT 30/16 A3008 RMK A01 T03040160  RH  042%=      5-min Rain = 0
KTA1 110023Z 16010KT 30/16 A3008 RMK A01 T03030160  RH  042%=      5-min Rain = 0
KTA1 110024Z 15011KT 30/16 A3008 RMK A01 T03020161  RH  042%=      5-min Rain = 0
KTA1 110025Z 15010KT 30/16 A3008 RMK A01 T03020160  RH  042%=      5-min Rain = 0
KTA1 110026Z 15010KT 30/16 A3008 RMK A01 T03020161  RH  042%=      5-min Rain = 0
KTA1 110027Z 15009KT 30/16 A3008 RMK A01 T03020161  RH  042%=      5-min Rain = 0
KTA1 110028Z 15010KT 30/16 A3008 RMK A01 T03030162  RH  043%=      5-min Rain = 0
KTA1 110029Z 15012KT 30/16 A3008 RMK A01 T03040162  RH  042%=      5-min Rain = 0
KTA1 110030Z 15012KT 30/16 A3008 RMK A01 T03040161  RH  042%=      5-min Rain = 0
KTA1 110031Z 17012KT 30/16 A3008 RMK A01 T03040162  RH  042%=      5-min Rain = 0
KTA1 110032Z 17011KT 30/16 A3008 RMK A01 T03040160  RH  042%=      5-min Rain = 0
KTA1 110033Z 17010KT 30/16 A3008 RMK A01 T03040161  RH  042%=      5-min Rain = 0
KTA1 110034Z 17012KT 30/16 A3008 RMK A01 T03040162  RH  042%=      5-min Rain = 0
KTA1 110035Z 16011KT 30/16 A3008 RMK A01 T03040161  RH  042%=      5-min Rain = 0
KTA1 110036Z 17012KT 30/16 A3008 RMK A01 T03030161  RH  042%=      5-min Rain = 0
KTA1 110037Z 16014KT 30/16 A3008 RMK A01 T03030160  RH  042%=      5-min Rain = 0
KTA1 110038Z 16013KT 30/16 A3008 RMK A01 T03030160  RH  042%=      5-min Rain = 0
KTA1 110039Z 16013KT 30/16 A3008 RMK A01 T03020160  RH  042%=      5-min Rain = 0
KTA1 110040Z 16011KT 30/16 A3008 RMK A01 T03010159  RH  042%=      5-min Rain = 0
KTA1 110041Z 16011KT 30/16 A3008 RMK A01 T03010159  RH  042%=      5-min Rain = 0
KTA1 110042Z 16009KT 30/16 A3008 RMK A01 T03000160  RH  043%=      5-min Rain = 0
KTA1 110043Z 16009KT 30/16 A3008 RMK A01 T03000160  RH  043%=      5-min Rain = 0
KTA1 110044Z 15008KT 30/16 A3008 RMK A01 T03000160  RH  043%=      5-min Rain = 0
KTA1 110045Z 16009KT 30/16 A3008 RMK A01 T03000160  RH  043%=      5-min Rain = 0
KTA1 110046Z 15010KT 30/16 A3008 RMK A01 T03000160  RH  043%=      5-min Rain = 0
KTA1 110047Z 15008KT 30/16 A3008 RMK A01 T03000160  RH  043%=      5-min Rain = 0
KTA1 110048Z 14010G16KT 30/16 A3008 RMK A01 T03000161  RH  043%=      5-min Rain = 0
KTA1 110049Z 14012KT 30/16 A3008 RMK A01 T03000160  RH  043%=      5-min Rain = 0
KTA1 110050Z 15009KT 30/16 A3008 RMK A01 T03000161  RH  043%=      5-min Rain = 0
KTA1 110051Z 15011KT 30/16 A3009 RMK A01 T03000162  RH  043%=      5-min Rain = 0
KTA1 110052Z 15011KT 30/16 A3009 RMK A01 T03000160  RH  043%=      5-min Rain = 0
KTA1 110053Z 15011KT 30/16 A3009 RMK A01 T03000160  RH  043%=      5-min Rain = 0
KTA1 110054Z 15011KT 30/16 A3009 RMK A01 T02990159  RH  043%=      5-min Rain = 0
KTA1 110055Z 15011KT 30/16 A3009 RMK A01 T02990159  RH  043%=      5-min Rain = 0
KTA1 110056Z 15008KT 30/16 A3009 RMK A01 T02990160  RH  043%=      5-min Rain = 0
KTA1 110057Z 16009KT 30/16 A3009 RMK A01 T02990161  RH  043%=      5-min Rain = 0
KTA1 110058Z 16008KT 30/16 A3009 RMK A01 T02980161  RH  044%=      5-min Rain = 0
KTA1 110059Z 16009KT 30/16 A3009 RMK A01 T02980161  RH  044%=      5-min Rain = 0
KTA1 110100Z 16010KT 30/16 A3009 RMK A01 T02990160  RH  043%=      5-min Rain = 0
KTA1 110101Z 16009KT 30/16 A3009 RMK A01 T02980158  RH  043%=      5-min Rain = 0
KTA1 110102Z 16010KT 30/16 A3009 RMK A01 T02990158  RH  043%=      5-min Rain = 0
KTA1 110103Z 16009KT 30/16 A3009 RMK A01 T02990159  RH  043%=      5-min Rain = 0
KTA1 110104Z 17012KT 30/16 A3009 RMK A01 T02990159  RH  043%=      5-min Rain = 0
KTA1 110105Z 16010KT 30/16 A3009 RMK A01 T02990158  RH  042%=      5-min Rain = 0
KTA1 110106Z 15007KT 30/16 A3009 RMK A01 T03000159  RH  043%=      5-min Rain = 0
KTA1 110107Z 15007KT 30/16 A3009 RMK A01 T03000162  RH  043%=      5-min Rain = 0
KTA1 110108Z 15009KT 30/16 A3009 RMK A01 T02990162  RH  043%=      5-min Rain = 0
KTA1 110109Z 15009KT 30/16 A301 RMK A01 T02980161  RH  043%=      5-min Rain = 0
KTA1 110110Z 16008KT 30/16 A301 RMK A01 T02980161  RH  043%=      5-min Rain = 0
KTA1 110111Z 16007KT 30/16 A301 RMK A01 T02980162  RH  044%=      5-min Rain = 0
KTA1 110112Z 16007KT 30/16 A301 RMK A01 T02980163  RH  044%=      5-min Rain = 0
KTA1 110113Z 16010KT 30/16 A301 RMK A01 T02970162  RH  044%=      5-min Rain = 0
KTA1 110114Z 16009KT 30/16 A301 RMK A01 T02970161  RH  044%=      5-min Rain = 0
KTA1 110115Z 16009KT 30/16 A301 RMK A01 T02970161  RH  044%=      5-min Rain = 0
KTA1 110116Z 16009KT 30/16 A301 RMK A01 T02970161  RH  044%=      5-min Rain = 0
KTA1 110117Z 16011KT 30/16 A301 RMK A01 T02970161  RH  044%=      5-min Rain = 0
KTA1 110118Z 16009KT 30/16 A301 RMK A01 T02970160  RH  044%=      5-min Rain = 0
KTA1 110119Z 16009KT 30/16 A301 RMK A01 T02970161  RH  044%=      5-min Rain = 0
KTA1 110120Z 15010KT 30/16 A301 RMK A01 T02970161  RH  044%=      5-min Rain = 0
KTA1 110121Z 16011KT 30/16 A301 RMK A01 T02980161  RH  044%=      5-min Rain = 0
KTA1 110122Z 16011KT 30/16 A301 RMK A01 T02970159  RH  043%=      5-min Rain = 0
KTA1 110123Z 15009KT 30/16 A301 RMK A01 T02970160  RH  044%=      5-min Rain = 0
KTA1 110124Z 15010KT 30/16 A301 RMK A01 T02970160  RH  044%=      5-min Rain = 0
KTA1 110125Z 16011KT 30/16 A301 RMK A01 T02960159  RH  043%=      5-min Rain = 0
KTA1 110126Z 16010KT 30/16 A301 RMK A01 T02970158  RH  043%=      5-min Rain = 0
KTA1 110127Z 16009KT 30/16 A301 RMK A01 T02970158  RH  043%=      5-min Rain = 0
KTA1 110128Z 16008KT 30/16 A301 RMK A01 T02970159  RH  043%=      5-min Rain = 0
KTA1 110129Z 16008KT 30/16 A301 RMK A01 T02960159  RH  043%=      5-min Rain = 0
KTA1 110130Z 16008KT 30/16 A301 RMK A01 T02960159  RH  044%=      5-min Rain = 0
KTA1 110131Z 16009KT 30/16 A301 RMK A01 T02960160  RH  044%=      5-min Rain = 0
KTA1 110132Z 15008KT 30/16 A301 RMK A01 T02960159  RH  044%=      5-min Rain = 0
KTA1 110133Z 16009KT 30/16 A301 RMK A01 T02960159  RH  044%=      5-min Rain = 0
KTA1 110134Z 15009KT 30/16 A301 RMK A01 T02950158  RH  043%=      5-min Rain = 0
KTA1 110135Z 15010KT 30/16 A301 RMK A01 T02960158  RH  043%=      5-min Rain = 0
KTA1 110136Z 15010KT 30/16 A301 RMK A01 T02960156  RH  043%=      5-min Rain = 0
KTA1 110137Z 15009KT 30/16 A301 RMK A01 T02960156  RH  043%=      5-min Rain = 0
KTA1 110138Z 15009KT 30/16 A301 RMK A01 T02960156  RH  043%=      5-min Rain = 0
KTA1 110139Z 15008KT 30/16 A301 RMK A01 T02960156  RH  043%=      5-min Rain = 0
KTA1 110140Z 15008KT 30/16 A301 RMK A01 T02960156  RH  043%=      5-min Rain = 0
KTA1 110141Z 15009KT 30/16 A301 RMK A01 T02950156  RH  043%=      5-min Rain = 0
KTA1 110142Z 15009KT 30/16 A301 RMK A01 T02950155  RH  043%=      5-min Rain = 0
KTA1 110143Z 15009KT 30/15 A301 RMK A01 T02950154  RH  043%=      5-min Rain = 0
KTA1 110144Z 15009KT 29/15 A301 RMK A01 T02940154  RH  043%=      5-min Rain = 0
KTA1 110145Z 15011KT 29/15 A301 RMK A01 T02940154  RH  043%=      5-min Rain = 0
KTA1 110146Z 15010KT 29/15 A301 RMK A01 T02940153  RH  042%=      5-min Rain = 0
KTA1 110147Z 15009KT 29/15 A301 RMK A01 T02940153  RH  042%=      5-min Rain = 0
KTA1 110148Z 15007KT 29/15 A301 RMK A01 T02940154  RH  043%=      5-min Rain = 0
KTA1 110149Z 15007KT 29/16 A301 RMK A01 T02940155  RH  043%=      5-min Rain = 0
KTA1 110150Z 15007KT 29/16 A301 RMK A01 T02930156  RH  043%=      5-min Rain = 0
KTA1 110151Z 14007KT 29/16 A301 RMK A01 T02930156  RH  044%=      5-min Rain = 0
KTA1 110152Z 14007KT 29/16 A301 RMK A01 T02920157  RH  044%=      5-min Rain = 0
KTA1 110153Z 15009KT 29/16 A301 RMK A01 T02910156  RH  044%=      5-min Rain = 0
KTA1 110154Z 15008KT 29/15 A301 RMK A01 T02910154  RH  043%=      5-min Rain = 0
KTA1 110155Z 16009KT 29/15 A301 RMK A01 T02900153  RH  043%=      5-min Rain = 0
KTA1 110156Z 15008KT 29/15 A301 RMK A01 T02910151  RH  043%=      5-min Rain = 0
KTA1 110157Z 15009KT 29/15 A301 RMK A01 T02910151  RH  043%=      5-min Rain = 0
KTA1 110158Z 16009KT 29/15 A301 RMK A01 T02910149  RH  042%=      5-min Rain = 0
KTA1 110159Z 16008KT 29/15 A3011 RMK A01 T02910149  RH  042%=      5-min Rain = 0
KTA1 110200Z 17008KT 29/15 A3011 RMK A01 T02910150  RH  042%=      5-min Rain = 0
KTA1 110201Z 17008KT 29/15 A3011 RMK A01 T02910150  RH  042%=      5-min Rain = 0
KTA1 110202Z 18008KT 29/15 A3011 RMK A01 T02900150  RH  042%=      5-min Rain = 0
KTA1 110203Z 18007KT 29/15 A3011 RMK A01 T02910152  RH  043%=      5-min Rain = 0
KTA1 110204Z 19007KT 29/15 A3011 RMK A01 T02900154  RH  044%=      5-min Rain = 0
KTA1 110205Z 18006KT 29/16 A3011 RMK A01 T02900156  RH  044%=      5-min Rain = 0
KTA1 110206Z 19006KT 29/16 A3011 RMK A01 T02900158  RH  045%=      5-min Rain = 0
KTA1 110207Z 19007KT 29/16 A3011 RMK A01 T02890160  RH  046%=      5-min Rain = 0
KTA1 110208Z 18005KT 29/16 A3011 RMK A01 T02880161  RH  046%=      5-min Rain = 0
KTA1 110209Z 18005KT 29/16 A3011 RMK A01 T02880161  RH  046%=      5-min Rain = 0
KTA1 110210Z 17005KT 29/16 A3011 RMK A01 T02880161  RH  046%=      5-min Rain = 0
KTA1 110211Z 17005KT 29/16 A3011 RMK A01 T02880161  RH  046%=      5-min Rain = 0
KTA1 110212Z 18005KT 29/16 A3011 RMK A01 T02880163  RH  047%=      5-min Rain = 0
KTA1 110213Z 18006KT 29/16 A3011 RMK A01 T02870163  RH  047%=      5-min Rain = 0
KTA1 110214Z 18005KT 29/16 A3011 RMK A01 T02870163  RH  047%=      5-min Rain = 0
KTA1 110215Z 19005KT 29/16 A3011 RMK A01 T02870164  RH  047%=      5-min Rain = 0
KTA1 110216Z 19005KT 29/16 A3011 RMK A01 T02870164  RH  047%=      5-min Rain = 0
KTA1 110217Z 19006KT 29/16 A3011 RMK A01 T02870164  RH  048%=      5-min Rain = 0
KTA1 110218Z 18005KT 29/17 A3011 RMK A01 T02860165  RH  048%=      5-min Rain = 0
KTA1 110219Z 18005KT 29/17 A3011 RMK A01 T02860166  RH  048%=      5-min Rain = 0
KTA1 110220Z 19005KT 29/17 A3011 RMK A01 T02850165  RH  048%=      5-min Rain = 0
KTA1 110221Z 18005KT 29/17 A3011 RMK A01 T02850166  RH  049%=      5-min Rain = 0
KTA1 110222Z 18005KT 28/17 A3011 RMK A01 T02840166  RH  049%=      5-min Rain = 0
KTA1 110223Z 18005KT 28/17 A3011 RMK A01 T02840166  RH  049%=      5-min Rain = 0
KTA1 110224Z 18004KT 28/17 A3011 RMK A01 T02830166  RH  049%=      5-min Rain = 0
KTA1 110225Z 18004KT 28/17 A3011 RMK A01 T02830166  RH  049%=      5-min Rain = 0
KTA1 110226Z 18005KT 28/17 A3011 RMK A01 T02820165  RH  049%=      5-min Rain = 0
KTA1 110227Z 18005KT 28/17 A3011 RMK A01 T02820165  RH  049%=      5-min Rain = 0
KTA1 110228Z 18004KT 28/16 A3011 RMK A01 T02810164  RH  049%=      5-min Rain = 0
KTA1 110229Z 19004KT 28/16 A3011 RMK A01 T02810164  RH  049%=      5-min Rain = 0
KTA1 110230Z 19004KT 28/16 A3011 RMK A01 T02800164  RH  049%=      5-min Rain = 0
KTA1 110231Z 19005KT 28/16 A3011 RMK A01 T02800163  RH  049%=      5-min Rain = 0
KTA1 110232Z 19004KT 28/16 A3011 RMK A01 T02790162  RH  049%=      5-min Rain = 0
KTA1 110233Z 19004KT 28/16 A3011 RMK A01 T02780162  RH  049%=      5-min Rain = 0
KTA1 110234Z 19004KT 28/16 A3011 RMK A01 T02780162  RH  049%=      5-min Rain = 0
KTA1 110235Z 19004KT 28/16 A3012 RMK A01 T02770162  RH  049%=      5-min Rain = 0
KTA1 110236Z 19004KT 28/16 A3012 RMK A01 T02770161  RH  049%=      5-min Rain = 0
KTA1 110237Z 19004KT 28/16 A3012 RMK A01 T02760161  RH  049%=      5-min Rain = 0
KTA1 110238Z 19004KT 28/16 A3012 RMK A01 T02760160  RH  049%=      5-min Rain = 0
KTA1 110239Z 19004KT 28/16 A3012 RMK A01 T02750160  RH  049%=      5-min Rain = 0
KTA1 110240Z 19004KT 28/16 A3012 RMK A01 T02750159  RH  049%=      5-min Rain = 0
KTA1 110241Z 20004KT 28/16 A3012 RMK A01 T02750159  RH  049%=      5-min Rain = 0
KTA1 110242Z 19004KT 27/16 A3012 RMK A01 T02740160  RH  050%=      5-min Rain = 0
KTA1 110243Z 19004KT 27/16 A3012 RMK A01 T02740158  RH  049%=      5-min Rain = 0
KTA1 110244Z 19004KT 27/16 A3012 RMK A01 T02730158  RH  049%=      5-min Rain = 0
KTA1 110245Z 19004KT 27/16 A3012 RMK A01 T02730158  RH  050%=      5-min Rain = 0
KTA1 110246Z 19004KT 27/16 A3012 RMK A01 T02720158  RH  050%=      5-min Rain = 0
KTA1 110247Z 19003KT 27/16 A3012 RMK A01 T02720158  RH  050%=      5-min Rain = 0
KTA1 110248Z 20004KT 27/16 A3012 RMK A01 T02710158  RH  050%=      5-min Rain = 0
KTA1 110249Z 20004KT 27/16 A3012 RMK A01 T02710158  RH  050%=      5-min Rain = 0
KTA1 110250Z 20004KT 27/16 A3012 RMK A01 T02700158  RH  050%=      5-min Rain = 0
KTA1 110251Z 20004KT 27/16 A3012 RMK A01 T02700157  RH  050%=      5-min Rain = 0
KTA1 110252Z 20004KT 27/16 A3012 RMK A01 T02700156  RH  050%=      5-min Rain = 0
KTA1 110253Z 20004KT 27/16 A3012 RMK A01 T02700156  RH  050%=      5-min Rain = 0
KTA1 110254Z 20004KT 27/16 A3012 RMK A01 T02700157  RH  050%=      5-min Rain = 0
KTA1 110255Z 20004KT 27/16 A3012 RMK A01 T02690157  RH  050%=      5-min Rain = 0
KTA1 110256Z 20004KT 27/16 A3012 RMK A01 T02690158  RH  051%=      5-min Rain = 0
KTA1 110257Z 20003KT 27/16 A3012 RMK A01 T02680156  RH  050%=      5-min Rain = 0
KTA1 110258Z 19004KT 27/16 A3012 RMK A01 T02680157  RH  051%=      5-min Rain = 0
KTA1 110259Z 19004KT 27/16 A3012 RMK A01 T02670157  RH  051%=      5-min Rain = 0
KTA1 110300Z 19004KT 27/16 A3012 RMK A01 T02670157  RH  051%=      5-min Rain = 0
KTA1 110301Z 19004KT 27/16 A3012 RMK A01 T02660158  RH  051%=      5-min Rain = 0
KTA1 110302Z 19004KT 27/16 A3012 RMK A01 T02660158  RH  051%=      5-min Rain = 0
KTA1 110303Z 18004KT 27/16 A3012 RMK A01 T02660158  RH  051%=      5-min Rain = 0
KTA1 110304Z 18004KT 27/16 A3012 RMK A01 T02650158  RH  052%=      5-min Rain = 0
KTA1 110305Z 18004KT 27/16 A3012 RMK A01 T02650158  RH  052%=      5-min Rain = 0
KTA1 110306Z 17004KT 26/16 A3012 RMK A01 T02640158  RH  052%=      5-min Rain = 0
KTA1 110307Z 17004KT 26/16 A3012 RMK A01 T02640158  RH  052%=      5-min Rain = 0
KTA1 110308Z 17004KT 26/16 A3012 RMK A01 T02640157  RH  052%=      5-min Rain = 0
KTA1 110309Z 17004KT 26/16 A3012 RMK A01 T02640158  RH  052%=      5-min Rain = 0
KTA1 110310Z 17005KT 26/16 A3012 RMK A01 T02640157  RH  052%=      5-min Rain = 0
KTA1 110311Z 16005KT 26/16 A3012 RMK A01 T02640156  RH  052%=      5-min Rain = 0
KTA1 110312Z 16005KT 26/15 A3012 RMK A01 T02630153  RH  051%=      5-min Rain = 0
KTA1 110313Z 16005KT 26/15 A3012 RMK A01 T02640152  RH  050%=      5-min Rain = 0
KTA1 110314Z 16005KT 26/15 A3012 RMK A01 T02640151  RH  050%=      5-min Rain = 0
KTA1 110315Z 16006KT 26/15 A3012 RMK A01 T02640150  RH  049%=      5-min Rain = 0
KTA1 110316Z 16005KT 27/15 A3012 RMK A01 T02650150  RH  049%=      5-min Rain = 0
KTA1 110317Z 15006KT 26/15 A3012 RMK A01 T02640149  RH  049%=      5-min Rain = 0
KTA1 110318Z 15006KT 26/15 A3012 RMK A01 T02640147  RH  049%=      5-min Rain = 0
KTA1 110319Z 16006KT 27/15 A3012 RMK A01 T02650147  RH  048%=      5-min Rain = 0
KTA1 110320Z 16006KT 27/15 A3012 RMK A01 T02650147  RH  048%=      5-min Rain = 0
KTA1 110321Z 15007KT 27/15 A3012 RMK A01 T02650146  RH  048%=      5-min Rain = 0
KTA1 110322Z 15006KT 27/15 A3013 RMK A01 T02660146  RH  048%=      5-min Rain = 0
KTA1 110323Z 15006KT 27/15 A3013 RMK A01 T02660146  RH  048%=      5-min Rain = 0
KTA1 110324Z 16007KT 27/15 A3013 RMK A01 T02660146  RH  048%=      5-min Rain = 0
KTA1 110325Z 15006KT 27/15 A3013 RMK A01 T02660147  RH  048%=      5-min Rain = 0
KTA1 110326Z 15006KT 27/15 A3013 RMK A01 T02660147  RH  048%=      5-min Rain = 0
KTA1 110327Z 15007KT 27/15 A3013 RMK A01 T02650147  RH  048%=      5-min Rain = 0
KTA1 110328Z 15006KT 27/15 A3013 RMK A01 T02650147  RH  048%=      5-min Rain = 0
KTA1 110329Z 15006KT 27/15 A3013 RMK A01 T02650148  RH  048%=      5-min Rain = 0
KTA1 110330Z 15006KT 27/15 A3013 RMK A01 T02650148  RH  049%=      5-min Rain = 0
KTA1 110331Z 15006KT 26/15 A3013 RMK A01 T02640148  RH  049%=      5-min Rain = 0
KTA1 110332Z 15006KT 26/15 A3013 RMK A01 T02640148  RH  049%=      5-min Rain = 0
KTA1 110333Z 15006KT 26/15 A3013 RMK A01 T02640148  RH  049%=      5-min Rain = 0
KTA1 110334Z 15006KT 26/15 A3013 RMK A01 T02640148  RH  049%=      5-min Rain = 0
KTA1 110335Z 15007KT 26/15 A3013 RMK A01 T02640148  RH  049%=      5-min Rain = 0
KTA1 110336Z 15007KT 26/15 A3013 RMK A01 T02640149  RH  049%=      5-min Rain = 0
KTA1 110337Z 15006KT 26/15 A3013 RMK A01 T02630149  RH  049%=      5-min Rain = 0
KTA1 110338Z 15006KT 26/15 A3013 RMK A01 T02630149  RH  050%=      5-min Rain = 0
KTA1 110339Z 15007KT 26/15 A3013 RMK A01 T02630149  RH  050%=      5-min Rain = 0
KTA1 110340Z 15006KT 26/15 A3013 RMK A01 T02630149  RH  050%=      5-min Rain = 0
KTA1 110341Z 15006KT 26/15 A3013 RMK A01 T02630149  RH  050%=      5-min Rain = 0
KTA1 110342Z 15006KT 26/15 A3013 RMK A01 T02630150  RH  050%=      5-min Rain = 0
KTA1 110343Z 15006KT 26/15 A3013 RMK A01 T02620149  RH  050%=      5-min Rain = 0
KTA1 110344Z 15007KT 26/15 A3013 RMK A01 T02620149  RH  050%=      5-min Rain = 0
KTA1 110345Z 16007KT 26/15 A3013 RMK A01 T02620148  RH  049%=      5-min Rain = 0
KTA1 110346Z 15007KT 26/15 A3013 RMK A01 T02620148  RH  049%=      5-min Rain = 0
KTA1 110347Z 15007KT 26/15 A3013 RMK A01 T02630148  RH  049%=      5-min Rain = 0
KTA1 110348Z 15007KT 26/15 A3013 RMK A01 T02630147  RH  049%=      5-min Rain = 0
KTA1 110349Z 15007KT 26/15 A3013 RMK A01 T02630148  RH  049%=      5-min Rain = 0
KTA1 110350Z 16007KT 26/15 A3013 RMK A01 T02630147  RH  049%=      5-min Rain = 0
KTA1 110351Z 15007KT 26/15 A3013 RMK A01 T02630147  RH  049%=      5-min Rain = 0
KTA1 110352Z 16007KT 26/15 A3013 RMK A01 T02630147  RH  049%=      5-min Rain = 0
KTA1 110353Z 16007KT 26/15 A3013 RMK A01 T02630147  RH  049%=      5-min Rain = 0
KTA1 110354Z 16007KT 26/15 A3013 RMK A01 T02630147  RH  049%=      5-min Rain = 0
KTA1 110355Z 16007KT 26/15 A3013 RMK A01 T02630147  RH  049%=      5-min Rain = 0
KTA1 110356Z 16007KT 26/15 A3013 RMK A01 T02630147  RH  049%=      5-min Rain = 0
KTA1 110357Z 16006KT 26/15 A3013 RMK A01 T02620147  RH  049%=      5-min Rain = 0
KTA1 110358Z 16007KT 26/15 A3013 RMK A01 T02620147  RH  049%=      5-min Rain = 0
KTA1 110359Z 16006KT 26/15 A3013 RMK A01 T02620146  RH  049%=      5-min Rain = 0
KTA1 110400Z 16007KT 26/15 A3013 RMK A01 T02620146  RH  049%=      5-min Rain = 0
KTA1 110401Z 16006KT 26/15 A3014 RMK A01 T02620145  RH  049%=      5-min Rain = 0
KTA1 110402Z 16007KT 26/15 A3014 RMK A01 T02620146  RH  049%=      5-min Rain = 0
KTA1 110403Z 16006KT 26/15 A3014 RMK A01 T02620147  RH  049%=      5-min Rain = 0
KTA1 110404Z 16006KT 26/15 A3014 RMK A01 T02610146  RH  049%=      5-min Rain = 0
KTA1 110405Z 16006KT 26/15 A3014 RMK A01 T02600146  RH  049%=      5-min Rain = 0
KTA1 110406Z 16006KT 26/15 A3014 RMK A01 T02600146  RH  049%=      5-min Rain = 0
KTA1 110407Z 16007KT 26/15 A3014 RMK A01 T02600146  RH  049%=      5-min Rain = 0
KTA1 110408Z 17007KT 26/15 A3014 RMK A01 T02590145  RH  049%=      5-min Rain = 0
KTA1 110409Z 17006KT 26/14 A3014 RMK A01 T02590144  RH  049%=      5-min Rain = 0
KTA1 110410Z 16006KT 26/15 A3014 RMK A01 T02600145  RH  049%=      5-min Rain = 0
KTA1 110411Z 17006KT 26/15 A3014 RMK A01 T02600145  RH  049%=      5-min Rain = 0
KTA1 110412Z 17006KT 26/15 A3014 RMK A01 T02600145  RH  049%=      5-min Rain = 0
KTA1 110413Z 17007KT 26/15 A3014 RMK A01 T02600145  RH  049%=      5-min Rain = 0
KTA1 110414Z 17007KT 26/14 A3014 RMK A01 T02600144  RH  049%=      5-min Rain = 0
KTA1 110415Z 17006KT 26/14 A3014 RMK A01 T02600144  RH  049%=      5-min Rain = 0
KTA1 110416Z 17007KT 26/14 A3014 RMK A01 T02600143  RH  049%=      5-min Rain = 0
KTA1 110417Z 16006KT 26/14 A3014 RMK A01 T02600144  RH  049%=      5-min Rain = 0
KTA1 110418Z 16006KT 26/14 A3014 RMK A01 T02600144  RH  049%=      5-min Rain = 0
KTA1 110419Z 16007KT 26/14 A3014 RMK A01 T02590144  RH  049%=      5-min Rain = 0
KTA1 110420Z 16006KT 26/14 A3014 RMK A01 T02590143  RH  049%=      5-min Rain = 0
KTA1 110421Z 16006KT 26/14 A3014 RMK A01 T02580143  RH  049%=      5-min Rain = 0
KTA1 110422Z 16006KT 26/14 A3014 RMK A01 T02580143  RH  049%=      5-min Rain = 0
KTA1 110423Z 16007KT 26/14 A3014 RMK A01 T02580143  RH  049%=      5-min Rain = 0
KTA1 110424Z 16006KT 26/14 A3014 RMK A01 T02570142  RH  049%=      5-min Rain = 0
KTA1 110425Z 16006KT 26/14 A3014 RMK A01 T02570141  RH  049%=      5-min Rain = 0
KTA1 110426Z 16006KT 26/14 A3014 RMK A01 T02570140  RH  048%=      5-min Rain = 0
KTA1 110427Z 16006KT 26/14 A3013 RMK A01 T02570139  RH  048%=      5-min Rain = 0
KTA1 110428Z 17007KT 26/14 A3013 RMK A01 T02570138  RH  048%=      5-min Rain = 0
KTA1 110429Z 17007KT 26/14 A3013 RMK A01 T02580138  RH  048%=      5-min Rain = 0
KTA1 110430Z 17007KT 26/14 A3013 RMK A01 T02570137  RH  047%=      5-min Rain = 0
KTA1 110431Z 17006KT 26/14 A3013 RMK A01 T02580137  RH  047%=      5-min Rain = 0
KTA1 110432Z 17006KT 26/14 A3013 RMK A01 T02580138  RH  047%=      5-min Rain = 0
KTA1 110433Z 17006KT 26/14 A3013 RMK A01 T02580138  RH  047%=      5-min Rain = 0
KTA1 110434Z 17006KT 26/14 A3013 RMK A01 T02580137  RH  047%=      5-min Rain = 0
KTA1 110435Z 17007KT 26/14 A3013 RMK A01 T02570137  RH  047%=      5-min Rain = 0
KTA1 110436Z 16007KT 26/14 A3013 RMK A01 T02580136  RH  047%=      5-min Rain = 0
KTA1 110437Z 16006KT 26/14 A3013 RMK A01 T02580136  RH  047%=      5-min Rain = 0
KTA1 110438Z 16006KT 26/14 A3013 RMK A01 T02570136  RH  047%=      5-min Rain = 0
KTA1 110439Z 16006KT 26/14 A3013 RMK A01 T02570136  RH  047%=      5-min Rain = 0
KTA1 110440Z 16005KT 26/14 A3013 RMK A01 T02570137  RH  047%=      5-min Rain = 0
KTA1 110441Z 16005KT 26/14 A3013 RMK A01 T02570136  RH  047%=      5-min Rain = 0
KTA1 110442Z 17005KT 26/14 A3013 RMK A01 T02560137  RH  048%=      5-min Rain = 0
KTA1 110443Z 16005KT 26/14 A3013 RMK A01 T02560137  RH  048%=      5-min Rain = 0
KTA1 110444Z 17005KT 26/14 A3013 RMK A01 T02550137  RH  048%=      5-min Rain = 0
KTA1 110445Z 17005KT 26/14 A3013 RMK A01 T02550137  RH  048%=      5-min Rain = 0
KTA1 110446Z 16005KT 26/14 A3013 RMK A01 T02550138  RH  048%=      5-min Rain = 0
KTA1 110447Z 17004KT 25/14 A3013 RMK A01 T02540137  RH  048%=      5-min Rain = 0
KTA1 110448Z 16004KT 25/14 A3013 RMK A01 T02540138  RH  049%=      5-min Rain = 0
KTA1 110449Z 17005KT 25/14 A3013 RMK A01 T02530138  RH  049%=      5-min Rain = 0
KTA1 110450Z 16005KT 25/14 A3013 RMK A01 T02530138  RH  049%=      5-min Rain = 0
KTA1 110451Z 16005KT 25/14 A3013 RMK A01 T02520138  RH  049%=      5-min Rain = 0
KTA1 110452Z 16005KT 25/14 A3013 RMK A01 T02520139  RH  050%=      5-min Rain = 0
KTA1 110453Z 16005KT 25/14 A3013 RMK A01 T02510138  RH  050%=      5-min Rain = 0
KTA1 110454Z 17005KT 25/14 A3013 RMK A01 T02510139  RH  050%=      5-min Rain = 0
KTA1 110455Z 17005KT 25/14 A3013 RMK A01 T02500139  RH  050%=      5-min Rain = 0
KTA1 110456Z 17005KT 25/14 A3013 RMK A01 T02500139  RH  050%=      5-min Rain = 0
KTA1 110457Z 17005KT 25/14 A3013 RMK A01 T02490139  RH  050%=      5-min Rain = 0
KTA1 110458Z 17005KT 25/14 A3013 RMK A01 T02490139  RH  050%=      5-min Rain = 0
KTA1 110459Z 17005KT 25/14 A3013 RMK A01 T02490139  RH  050%=      5-min Rain = 0

Page generated in 0.1231 seconds.